Time,TemperatureF,DewpointF,PressureIn,WindDirection,WindDirectionDegrees,WindSpeedMPH,WindSpeedGustMPH,Humidity,HourlyPrecipIn,Conditions,Clouds,dailyrainin,SoftwareType,DateUTC
2013-01-06 00:00:00,40.9,38.2,30.24,WSW,253,2.0,2.0,90,0.00,,,0.00,Wunderground v.1.15,2013-01-06 06:00:00,
2013-01-06 00:02:00,40.9,38.2,30.24,WSW,253,2.0,3.0,90,0.00,,,0.00,Wunderground v.1.15,2013-01-06 06:02:00,
2013-01-06 00:05:00,40.9,38.2,30.24,WSW,253,2.0,3.0,90,0.00,,,0.00,Wunderground v.1.15,2013-01-06 06:05:00,
2013-01-06 00:07:00,40.9,38.2,30.24,WSW,253,2.0,3.0,90,0.00,,,0.00,Wunderground v.1.15,2013-01-06 06:07:00,
2013-01-06 00:08:00,40.9,38.2,30.24,WSW,253,2.0,3.0,90,0.00,,,0.00,Wunderground v.1.15,2013-01-06 06:08:00,
2013-01-06 00:10:00,40.9,38.2,30.24,WSW,253,2.0,2.0,90,0.00,,,0.00,Wunderground v.1.15,2013-01-06 06:10:00,
2013-01-06 00:12:00,40.9,38.2,30.24,WSW,253,2.0,2.0,90,0.00,,,0.00,Wunderground v.1.15,2013-01-06 06:12:00,
2013-01-06 00:13:00,40.9,38.2,30.24,WSW,253,1.0,2.0,90,0.00,,,0.00,Wunderground v.1.15,2013-01-06 06:13:00,
2013-01-06 00:14:00,40.9,38.2,30.24,WSW,253,1.0,2.0,90,0.00,,,0.00,Wunderground v.1.15,2013-01-06 06:14:00,
2013-01-06 00:15:00,40.8,38.1,30.24,WSW,253,1.0,2.0,90,0.00,,,0.00,Wunderground v.1.15,2013-01-06 06:15:00,
2013-01-06 00:18:00,40.8,38.1,30.24,WSW,253,1.0,2.0,90,0.00,,,0.00,Wunderground v.1.15,2013-01-06 06:18:00,
2013-01-06 00:21:00,40.8,38.1,30.24,WSW,253,2.0,2.0,90,0.00,,,0.00,Wunderground v.1.15,2013-01-06 06:21:00,
2013-01-06 00:24:00,40.8,38.1,30.24,WSW,253,2.0,2.0,90,0.00,,,0.00,Wunderground v.1.15,2013-01-06 06:24:00,
2013-01-06 00:25:00,40.8,38.1,30.24,WSW,253,2.0,2.0,90,0.00,,,0.00,Wunderground v.1.15,2013-01-06 06:25:00,
2013-01-06 00:26:00,40.8,38.1,30.24,WSW,253,2.0,2.0,90,0.00,,,0.00,Wunderground v.1.15,2013-01-06 06:26:00,
2013-01-06 00:30:00,40.6,37.9,30.24,WSW,253,1.0,2.0,90,0.00,,,0.00,Wunderground v.1.15,2013-01-06 06:30:00,
2013-01-06 00:32:00,40.6,37.9,30.24,WSW,253,1.0,1.0,90,0.00,,,0.00,Wunderground v.1.15,2013-01-06 06:32:00,
2013-01-06 00:33:00,40.6,37.9,30.24,WSW,253,1.0,1.0,90,0.00,,,0.00,Wunderground v.1.15,2013-01-06 06:33:00,
2013-01-06 00:35:00,40.5,37.8,30.24,WSW,253,1.0,1.0,90,0.00,,,0.00,Wunderground v.1.15,2013-01-06 06:35:00,
2013-01-06 00:37:00,40.5,37.8,30.24,WSW,253,1.0,2.0,90,0.00,,,0.00,Wunderground v.1.15,2013-01-06 06:37:00,
2013-01-06 00:38:00,40.5,37.8,30.24,WSW,253,1.0,2.0,90,0.00,,,0.00,Wunderground v.1.15,2013-01-06 06:38:00,
2013-01-06 00:40:00,40.3,37.6,30.24,WSW,253,1.0,1.0,90,0.00,,,0.00,Wunderground v.1.15,2013-01-06 06:40:00,
2013-01-06 00:41:00,40.3,37.6,30.24,WSW,253,1.0,1.0,90,0.00,,,0.00,Wunderground v.1.15,2013-01-06 06:41:00,
2013-01-06 00:43:00,40.3,37.6,30.24,WSW,253,1.0,2.0,90,0.00,,,0.00,Wunderground v.1.15,2013-01-06 06:43:00,
2013-01-06 00:44:00,40.2,37.5,30.24,WSW,253,1.0,2.0,90,0.00,,,0.00,Wunderground v.1.15,2013-01-06 06:44:00,
2013-01-06 00:45:00,40.2,37.5,30.24,WSW,253,1.0,2.0,90,0.00,,,0.00,Wunderground v.1.15,2013-01-06 06:45:00,
2013-01-06 00:47:00,40.2,37.5,30.24,WSW,253,1.0,2.0,90,0.00,,,0.00,Wunderground v.1.15,2013-01-06 06:47:00,
2013-01-06 00:50:00,40.2,37.8,30.24,WSW,253,1.0,2.0,91,0.00,,,0.00,Wunderground v.1.15,2013-01-06 06:50:00,
2013-01-06 00:52:00,40.2,37.8,30.24,WSW,253,1.0,2.0,91,0.00,,,0.00,Wunderground v.1.15,2013-01-06 06:52:00,
2013-01-06 00:54:00,40.1,37.7,30.24,WSW,253,1.0,2.0,91,0.00,,,0.00,Wunderground v.1.15,2013-01-06 06:54:00,
2013-01-06 00:56:00,40.1,37.7,30.24,WSW,253,1.0,2.0,91,0.00,,,0.00,Wunderground v.1.15,2013-01-06 06:56:00,
2013-01-06 00:58:00,40.1,37.7,30.24,WSW,253,1.0,2.0,91,0.00,,,0.00,Wunderground v.1.15,2013-01-06 06:58:00,
2013-01-06 01:00:00,40.1,37.7,30.24,WSW,253,1.0,3.0,91,0.00,,,0.00,Wunderground v.1.15,2013-01-06 07:00:00,
2013-01-06 01:01:00,39.9,37.5,30.24,WSW,253,1.0,3.0,91,0.00,,,0.00,Wunderground v.1.15,2013-01-06 07:01:00,
2013-01-06 01:03:00,39.9,37.5,30.24,WSW,253,1.0,3.0,91,0.00,,,0.00,Wunderground v.1.15,2013-01-06 07:03:00,
2013-01-06 01:04:00,39.9,37.5,30.24,WSW,253,2.0,3.0,91,0.00,,,0.00,Wunderground v.1.15,2013-01-06 07:04:00,
2013-01-06 01:06:00,39.9,37.5,30.24,WSW,253,1.0,3.0,91,0.00,,,0.00,Wunderground v.1.15,2013-01-06 07:06:00,
2013-01-06 01:10:00,39.9,37.5,30.24,WSW,253,1.0,2.0,91,0.00,,,0.00,Wunderground v.1.15,2013-01-06 07:10:00,
2013-01-06 01:12:00,39.9,37.5,30.24,WSW,253,1.0,2.0,91,0.00,,,0.00,Wunderground v.1.15,2013-01-06 07:12:00,
2013-01-06 01:16:00,39.9,37.5,30.24,WSW,253,1.0,2.0,91,0.00,,,0.00,Wunderground v.1.15,2013-01-06 07:16:00,
2013-01-06 01:17:00,39.9,37.5,30.24,WSW,253,2.0,2.0,91,0.00,,,0.00,Wunderground v.1.15,2013-01-06 07:17:00,
2013-01-06 01:20:00,39.9,37.5,30.24,WSW,253,2.0,2.0,91,0.00,,,0.00,Wunderground v.1.15,2013-01-06 07:20:00,
2013-01-06 01:22:00,39.9,37.5,30.24,WSW,253,1.0,2.0,91,0.00,,,0.00,Wunderground v.1.15,2013-01-06 07:22:00,
2013-01-06 01:24:00,39.9,37.5,30.24,WSW,253,1.0,2.0,91,0.00,,,0.00,Wunderground v.1.15,2013-01-06 07:24:00,
2013-01-06 01:25:00,39.9,37.5,30.24,WSW,253,1.0,2.0,91,0.00,,,0.00,Wunderground v.1.15,2013-01-06 07:25:00,
2013-01-06 01:27:00,39.8,37.4,30.24,WSW,253,0.0,2.0,91,0.00,,,0.00,Wunderground v.1.15,2013-01-06 07:27:00,
2013-01-06 01:30:00,39.8,37.4,30.24,WSW,253,0.0,2.0,91,0.00,,,0.00,Wunderground v.1.15,2013-01-06 07:30:00,
2013-01-06 01:33:00,39.8,37.4,30.24,WSW,253,0.0,0.0,91,0.00,,,0.00,Wunderground v.1.15,2013-01-06 07:33:00,
2013-01-06 01:34:00,39.8,37.4,30.24,WSW,253,0.0,0.0,91,0.00,,,0.00,Wunderground v.1.15,2013-01-06 07:34:00,
2013-01-06 01:37:00,39.5,37.1,30.24,WSW,253,0.0,0.0,91,0.00,,,0.00,Wunderground v.1.15,2013-01-06 07:37:00,
2013-01-06 01:41:00,39.3,36.9,30.24,WSW,253,0.0,2.0,91,0.00,,,0.00,Wunderground v.1.15,2013-01-06 07:41:00,
2013-01-06 01:42:00,39.3,36.9,30.24,WSW,253,0.0,2.0,91,0.00,,,0.00,Wunderground v.1.15,2013-01-06 07:42:00,
2013-01-06 01:43:00,39.3,36.9,30.24,WSW,253,1.0,3.0,91,0.00,,,0.00,Wunderground v.1.15,2013-01-06 07:43:00,
2013-01-06 01:48:00,39.5,37.1,30.24,WSW,253,1.0,3.0,91,0.00,,,0.00,Wunderground v.1.15,2013-01-06 07:48:00,
2013-01-06 01:50:00,39.5,37.1,30.24,WSW,253,2.0,3.0,91,0.00,,,0.00,Wunderground v.1.15,2013-01-06 07:50:00,
2013-01-06 01:52:00,39.5,37.1,30.24,WSW,253,2.0,2.0,91,0.00,,,0.00,Wunderground v.1.15,2013-01-06 07:52:00,
2013-01-06 01:53:00,39.5,37.1,30.24,WSW,253,2.0,2.0,91,0.00,,,0.00,Wunderground v.1.15,2013-01-06 07:53:00,
2013-01-06 01:57:00,39.5,37.1,30.24,WSW,253,2.0,2.0,91,0.00,,,0.00,Wunderground v.1.15,2013-01-06 07:57:00,
2013-01-06 01:58:00,39.5,37.1,30.24,WSW,253,2.0,2.0,91,0.00,,,0.00,Wunderground v.1.15,2013-01-06 07:58:00,
2013-01-06 02:01:00,39.6,37.5,30.24,WSW,253,2.0,2.0,92,0.00,,,0.00,Wunderground v.1.15,2013-01-06 08:01:00,
2013-01-06 02:03:00,39.6,37.5,30.24,WSW,253,2.0,2.0,92,0.00,,,0.00,Wunderground v.1.15,2013-01-06 08:03:00,
2013-01-06 02:05:00,39.8,37.7,30.24,WSW,253,2.0,3.0,92,0.00,,,0.00,Wunderground v.1.15,2013-01-06 08:05:00,
2013-01-06 02:06:00,39.9,37.8,30.24,WSW,253,2.0,3.0,92,0.00,,,0.00,Wunderground v.1.15,2013-01-06 08:06:00,
2013-01-06 02:10:00,40.1,38.0,30.24,WSW,253,2.0,2.0,92,0.00,,,0.00,Wunderground v.1.15,2013-01-06 08:10:00,
2013-01-06 02:11:00,40.1,38.0,30.24,WSW,253,2.0,2.0,92,0.00,,,0.00,Wunderground v.1.15,2013-01-06 08:11:00,
2013-01-06 02:12:00,40.1,38.0,30.24,WSW,253,2.0,2.0,92,0.00,,,0.00,Wunderground v.1.15,2013-01-06 08:12:00,
2013-01-06 02:14:00,40.2,38.1,30.24,WSW,253,2.0,2.0,92,0.00,,,0.00,Wunderground v.1.15,2013-01-06 08:14:00,
2013-01-06 02:17:00,40.1,38.0,30.23,WSW,253,1.0,2.0,92,0.00,,,0.00,Wunderground v.1.15,2013-01-06 08:17:00,
2013-01-06 02:18:00,40.1,37.7,30.23,WSW,253,1.0,2.0,91,0.00,,,0.00,Wunderground v.1.15,2013-01-06 08:18:00,
2013-01-06 02:20:00,40.1,37.7,30.23,WSW,253,1.0,1.0,91,0.00,,,0.00,Wunderground v.1.15,2013-01-06 08:20:00,
2013-01-06 02:22:00,39.9,37.8,30.23,WSW,254,0.0,3.0,92,0.00,,,0.00,Wunderground v.1.15,2013-01-06 08:22:00,
2013-01-06 02:27:00,39.9,37.5,30.23,West,278,1.0,3.0,91,0.00,,,0.00,Wunderground v.1.15,2013-01-06 08:27:00,
2013-01-06 02:28:00,39.8,37.4,30.23,West,278,2.0,3.0,91,0.00,,,0.00,Wunderground v.1.15,2013-01-06 08:28:00,
2013-01-06 02:30:00,39.8,37.4,30.23,West,278,2.0,2.0,91,0.00,,,0.00,Wunderground v.1.15,2013-01-06 08:30:00,
2013-01-06 02:32:00,39.8,37.7,30.23,West,278,2.0,2.0,92,0.00,,,0.00,Wunderground v.1.15,2013-01-06 08:32:00,
2013-01-06 02:35:00,39.6,37.2,30.23,West,278,2.0,3.0,91,0.00,,,0.00,Wunderground v.1.15,2013-01-06 08:35:00,
2013-01-06 02:37:00,39.6,37.2,30.23,West,278,2.0,3.0,91,0.00,,,0.00,Wunderground v.1.15,2013-01-06 08:37:00,
2013-01-06 02:38:00,39.6,37.5,30.23,West,278,2.0,3.0,92,0.00,,,0.00,Wunderground v.1.15,2013-01-06 08:38:00,
2013-01-06 02:41:00,39.6,37.5,30.23,WNW,289,2.0,4.0,92,0.00,,,0.00,Wunderground v.1.15,2013-01-06 08:41:00,
2013-01-06 02:43:00,39.6,37.5,30.23,NW,316,3.0,5.0,92,0.00,,,0.00,Wunderground v.1.15,2013-01-06 08:43:00,
2013-01-06 02:44:00,39.6,37.5,30.23,NW,316,3.0,5.0,92,0.00,,,0.00,Wunderground v.1.15,2013-01-06 08:44:00,
2013-01-06 02:46:00,39.6,37.5,30.23,NW,316,3.0,5.0,92,0.00,,,0.00,Wunderground v.1.15,2013-01-06 08:46:00,
2013-01-06 02:47:00,39.6,37.5,30.23,NW,318,3.0,5.0,92,0.00,,,0.00,Wunderground v.1.15,2013-01-06 08:47:00,
2013-01-06 02:50:00,39.6,37.5,30.23,NW,318,3.0,3.0,92,0.00,,,0.00,Wunderground v.1.15,2013-01-06 08:50:00,
2013-01-06 02:51:00,39.6,37.5,30.23,NW,318,3.0,3.0,92,0.00,,,0.00,Wunderground v.1.15,2013-01-06 08:51:00,
2013-01-06 02:55:00,39.5,37.4,30.23,NW,315,3.0,5.0,92,0.00,,,0.00,Wunderground v.1.15,2013-01-06 08:55:00,
2013-01-06 02:56:00,39.5,37.4,30.23,NW,316,3.0,5.0,92,0.00,,,0.00,Wunderground v.1.15,2013-01-06 08:56:00,
2013-01-06 02:57:00,39.5,37.4,30.23,NW,315,3.0,5.0,92,0.00,,,0.00,Wunderground v.1.15,2013-01-06 08:57:00,
2013-01-06 03:01:00,39.5,37.1,30.23,NW,312,3.0,4.0,91,0.00,,,0.01,Wunderground v.1.15,2013-01-06 09:01:00,
2013-01-06 03:02:00,39.3,36.9,30.23,NW,305,4.0,4.0,91,0.00,,,0.01,Wunderground v.1.15,2013-01-06 09:02:00,
2013-01-06 03:03:00,39.3,36.9,30.23,NW,306,4.0,4.0,91,0.00,,,0.01,Wunderground v.1.15,2013-01-06 09:03:00,
2013-01-06 03:04:00,39.3,36.9,30.23,NW,306,4.0,4.0,91,0.00,,,0.01,Wunderground v.1.15,2013-01-06 09:04:00,
2013-01-06 03:07:00,39.2,36.8,30.23,NW,306,3.0,4.0,91,0.00,,,0.01,Wunderground v.1.15,2013-01-06 09:07:00,
2013-01-06 03:10:00,39.2,36.8,30.23,NW,306,3.0,3.0,91,0.00,,,0.01,Wunderground v.1.15,2013-01-06 09:10:00,
2013-01-06 03:12:00,39.2,36.8,30.23,NW,306,3.0,3.0,91,0.00,,,0.01,Wunderground v.1.15,2013-01-06 09:12:00,
2013-01-06 03:16:00,39.1,36.7,30.23,NW,306,2.0,3.0,91,0.00,,,0.01,Wunderground v.1.15,2013-01-06 09:16:00,
2013-01-06 03:18:00,39.1,37.0,30.23,NW,306,2.0,3.0,92,0.00,,,0.01,Wunderground v.1.15,2013-01-06 09:18:00,
2013-01-06 03:20:00,39.1,36.7,30.23,NW,306,2.0,2.0,91,0.00,,,0.01,Wunderground v.1.15,2013-01-06 09:20:00,
2013-01-06 03:21:00,39.1,36.7,30.23,NW,306,2.0,2.0,91,0.00,,,0.01,Wunderground v.1.15,2013-01-06 09:21:00,
2013-01-06 03:22:00,39.1,36.7,30.23,NW,306,1.0,2.0,91,0.00,,,0.01,Wunderground v.1.15,2013-01-06 09:22:00,
2013-01-06 03:23:00,39.1,36.7,30.23,NW,306,1.0,2.0,91,0.00,,,0.01,Wunderground v.1.15,2013-01-06 09:23:00,
2013-01-06 03:26:00,38.9,36.5,30.23,NW,306,1.0,2.0,91,0.00,,,0.01,Wunderground v.1.15,2013-01-06 09:26:00,
2013-01-06 03:27:00,38.9,36.5,30.23,NW,306,0.0,2.0,91,0.00,,,0.01,Wunderground v.1.15,2013-01-06 09:27:00,
2013-01-06 03:30:00,38.9,36.5,30.23,NW,306,0.0,0.0,91,0.00,,,0.01,Wunderground v.1.15,2013-01-06 09:30:00,
2013-01-06 03:31:00,38.9,36.8,30.23,NW,306,0.0,0.0,92,0.00,,,0.01,Wunderground v.1.15,2013-01-06 09:31:00,
2013-01-06 03:32:00,38.9,36.8,30.23,NW,306,0.0,0.0,92,0.00,,,0.01,Wunderground v.1.15,2013-01-06 09:32:00,
2013-01-06 03:35:00,38.9,36.8,30.23,NW,306,0.0,0.0,92,0.00,,,0.01,Wunderground v.1.15,2013-01-06 09:35:00,
2013-01-06 03:36:00,38.9,36.8,30.23,NW,306,0.0,1.0,92,0.00,,,0.01,Wunderground v.1.15,2013-01-06 09:36:00,
2013-01-06 03:37:00,38.9,36.8,30.23,NW,306,0.0,1.0,92,0.00,,,0.01,Wunderground v.1.15,2013-01-06 09:37:00,
2013-01-06 03:38:00,38.9,36.8,30.23,NW,306,0.0,1.0,92,0.00,,,0.01,Wunderground v.1.15,2013-01-06 09:38:00,
2013-01-06 03:43:00,38.9,36.5,30.23,NW,306,1.0,2.0,91,0.00,,,0.01,Wunderground v.1.15,2013-01-06 09:43:00,
2013-01-06 03:44:00,38.9,36.8,30.23,NW,306,1.0,2.0,92,0.00,,,0.01,Wunderground v.1.15,2013-01-06 09:44:00,
2013-01-06 03:45:00,38.9,36.8,30.23,NW,306,1.0,2.0,92,0.00,,,0.01,Wunderground v.1.15,2013-01-06 09:45:00,
2013-01-06 03:47:00,38.9,36.8,30.23,NW,306,1.0,2.0,92,0.00,,,0.01,Wunderground v.1.15,2013-01-06 09:47:00,
2013-01-06 03:50:00,38.9,36.8,30.23,NW,306,1.0,2.0,92,0.00,,,0.01,Wunderground v.1.15,2013-01-06 09:50:00,
2013-01-06 03:52:00,38.9,36.8,30.23,NW,306,1.0,1.0,92,0.00,,,0.01,Wunderground v.1.15,2013-01-06 09:52:00,
2013-01-06 03:54:00,38.9,36.8,30.23,NW,306,0.0,2.0,92,0.00,,,0.01,Wunderground v.1.15,2013-01-06 09:54:00,
2013-01-06 03:57:00,38.9,36.8,30.23,NW,306,1.0,2.0,92,0.00,,,0.01,Wunderground v.1.15,2013-01-06 09:57:00,
2013-01-06 04:00:00,38.9,36.8,30.23,NW,306,1.0,1.0,92,0.00,,,0.01,Wunderground v.1.15,2013-01-06 10:00:00,
2013-01-06 04:01:00,38.9,36.8,30.22,NW,306,1.0,1.0,92,0.00,,,0.01,Wunderground v.1.15,2013-01-06 10:01:00,
2013-01-06 04:02:00,38.9,36.8,30.22,NW,306,1.0,3.0,92,0.00,,,0.01,Wunderground v.1.15,2013-01-06 10:02:00,
2013-01-06 04:03:00,38.9,36.8,30.22,NW,306,1.0,3.0,92,0.00,,,0.01,Wunderground v.1.15,2013-01-06 10:03:00,
2013-01-06 04:08:00,38.9,36.8,30.22,NW,306,1.0,3.0,92,0.00,,,0.01,Wunderground v.1.15,2013-01-06 10:08:00,
2013-01-06 04:10:00,38.9,36.8,30.22,NW,306,1.0,2.0,92,0.00,,,0.01,Wunderground v.1.15,2013-01-06 10:10:00,
2013-01-06 04:11:00,38.9,36.8,30.22,NW,308,1.0,5.0,92,0.00,,,0.01,Wunderground v.1.15,2013-01-06 10:11:00,
2013-01-06 04:12:00,39.1,37.0,30.22,NNW,343,2.0,5.0,92,0.00,,,0.01,Wunderground v.1.15,2013-01-06 10:12:00,
2013-01-06 04:13:00,39.1,37.0,30.22,NW,311,2.0,9.0,92,0.00,,,0.01,Wunderground v.1.15,2013-01-06 10:13:00,
2013-01-06 04:17:00,39.3,37.2,30.23,NNW,336,3.0,9.0,92,0.00,,,0.01,Wunderground v.1.15,2013-01-06 10:17:00,
2013-01-06 04:18:00,39.3,37.2,30.23,NNW,330,3.0,9.0,92,0.00,,,0.01,Wunderground v.1.15,2013-01-06 10:18:00,
2013-01-06 04:20:00,39.3,37.2,30.23,North,350,4.0,4.0,92,0.00,,,0.01,Wunderground v.1.15,2013-01-06 10:20:00,
2013-01-06 04:22:00,39.3,37.2,30.23,NNW,332,5.0,7.0,92,0.00,,,0.01,Wunderground v.1.15,2013-01-06 10:22:00,
2013-01-06 04:24:00,39.3,37.2,30.23,NNW,329,5.0,7.0,92,0.00,,,0.01,Wunderground v.1.15,2013-01-06 10:24:00,
2013-01-06 04:26:00,39.3,37.2,30.23,NW,322,5.0,7.0,92,0.00,,,0.01,Wunderground v.1.15,2013-01-06 10:26:00,
2013-01-06 04:27:00,39.3,37.2,30.23,NW,323,5.0,7.0,92,0.00,,,0.01,Wunderground v.1.15,2013-01-06 10:27:00,
2013-01-06 04:28:00,39.5,37.4,30.23,NNW,329,5.0,8.0,92,0.00,,,0.01,Wunderground v.1.15,2013-01-06 10:28:00,
2013-01-06 04:30:00,39.3,37.2,30.23,NNW,340,5.0,5.0,92,0.00,,,0.01,Wunderground v.1.15,2013-01-06 10:30:00,
2013-01-06 04:33:00,39.3,36.9,30.22,NNW,336,5.0,7.0,91,0.00,,,0.01,Wunderground v.1.15,2013-01-06 10:33:00,
2013-01-06 04:34:00,39.3,36.9,30.22,NNW,329,5.0,7.0,91,0.00,,,0.01,Wunderground v.1.15,2013-01-06 10:34:00,
2013-01-06 04:35:00,39.3,36.9,30.22,NW,326,5.0,7.0,91,0.00,,,0.01,Wunderground v.1.15,2013-01-06 10:35:00,
2013-01-06 04:37:00,39.3,36.9,30.22,NNW,335,5.0,7.0,91,0.00,,,0.01,Wunderground v.1.15,2013-01-06 10:37:00,
2013-01-06 04:40:00,39.3,36.9,30.22,NNW,342,5.0,5.0,91,0.00,,,0.01,Wunderground v.1.15,2013-01-06 10:40:00,
2013-01-06 04:41:00,39.3,36.9,30.22,NNW,342,5.0,7.0,91,0.00,,,0.01,Wunderground v.1.15,2013-01-06 10:41:00,
2013-01-06 04:42:00,39.3,36.9,30.22,NNW,333,5.0,7.0,91,0.00,,,0.01,Wunderground v.1.15,2013-01-06 10:42:00,
2013-01-06 04:45:00,39.3,36.9,30.22,NNW,335,4.0,7.0,91,0.00,,,0.01,Wunderground v.1.15,2013-01-06 10:45:00,
2013-01-06 04:47:00,39.3,36.9,30.22,NNW,330,5.0,7.0,91,0.00,,,0.01,Wunderground v.1.15,2013-01-06 10:47:00,
2013-01-06 04:48:00,39.3,36.9,30.22,NW,316,5.0,7.0,91,0.00,,,0.01,Wunderground v.1.15,2013-01-06 10:48:00,
2013-01-06 04:52:00,39.3,36.9,30.22,NNW,337,5.0,8.0,91,0.00,,,0.01,Wunderground v.1.15,2013-01-06 10:52:00,
2013-01-06 04:54:00,39.2,36.8,30.22,NW,319,5.0,8.0,91,0.00,,,0.01,Wunderground v.1.15,2013-01-06 10:54:00,
2013-01-06 04:57:00,39.2,36.8,30.22,North,350,5.0,8.0,91,0.00,,,0.01,Wunderground v.1.15,2013-01-06 10:57:00,
2013-01-06 04:58:00,39.1,36.7,30.22,NNW,329,5.0,8.0,91,0.00,,,0.01,Wunderground v.1.15,2013-01-06 10:58:00,
2013-01-06 05:00:00,39.1,36.7,30.23,NNW,344,5.0,6.0,91,0.00,,,0.01,Wunderground v.1.15,2013-01-06 11:00:00,
2013-01-06 05:02:00,39.1,36.7,30.23,NNW,335,5.0,6.0,91,0.00,,,0.01,Wunderground v.1.15,2013-01-06 11:02:00,
2013-01-06 05:03:00,39.1,36.7,30.23,NW,320,5.0,6.0,91,0.00,,,0.01,Wunderground v.1.15,2013-01-06 11:03:00,
2013-01-06 05:05:00,39.1,36.7,30.23,NNW,328,5.0,6.0,91,0.00,,,0.01,Wunderground v.1.15,2013-01-06 11:05:00,
2013-01-06 05:08:00,39.1,36.4,30.23,NNW,346,5.0,8.0,90,0.00,,,0.01,Wunderground v.1.15,2013-01-06 11:08:00,
2013-01-06 05:13:00,39.1,36.4,30.23,North,1,5.0,6.0,90,0.00,,,0.01,Wunderground v.1.15,2013-01-06 11:13:00,
2013-01-06 05:14:00,39.1,36.4,30.23,NNW,346,5.0,7.0,90,0.00,,,0.01,Wunderground v.1.15,2013-01-06 11:14:00,
2013-01-06 05:16:00,39.1,36.4,30.23,NNW,340,5.0,8.0,90,0.00,,,0.01,Wunderground v.1.15,2013-01-06 11:16:00,
2013-01-06 05:18:00,39.1,36.4,30.23,NNW,337,5.0,8.0,90,0.00,,,0.01,Wunderground v.1.15,2013-01-06 11:18:00,
2013-01-06 05:20:00,38.9,35.9,30.23,NNW,333,5.0,8.0,89,0.00,,,0.01,Wunderground v.1.15,2013-01-06 11:20:00,
2013-01-06 05:21:00,38.9,35.9,30.23,NNW,329,4.0,5.0,89,0.00,,,0.01,Wunderground v.1.15,2013-01-06 11:21:00,
2013-01-06 05:25:00,38.8,35.8,30.23,North,349,4.0,6.0,89,0.00,,,0.01,Wunderground v.1.15,2013-01-06 11:25:00,
2013-01-06 05:27:00,38.8,35.8,30.23,NNW,342,4.0,6.0,89,0.00,,,0.01,Wunderground v.1.15,2013-01-06 11:27:00,
2013-01-06 05:28:00,38.8,35.8,30.23,NNW,339,4.0,6.0,89,0.00,,,0.01,Wunderground v.1.15,2013-01-06 11:28:00,
2013-01-06 05:30:00,38.6,35.6,30.23,North,359,4.0,6.0,89,0.00,,,0.01,Wunderground v.1.15,2013-01-06 11:30:00,
2013-01-06 05:31:00,38.6,35.6,30.23,NNW,337,4.0,6.0,89,0.00,,,0.01,Wunderground v.1.15,2013-01-06 11:31:00,
2013-01-06 05:33:00,38.5,35.5,30.23,NNW,339,4.0,7.0,89,0.00,,,0.01,Wunderground v.1.15,2013-01-06 11:33:00,
2013-01-06 05:35:00,38.5,35.5,30.23,NNW,340,4.0,7.0,89,0.00,,,0.01,Wunderground v.1.15,2013-01-06 11:35:00,
2013-01-06 05:36:00,38.3,35.3,30.23,North,350,4.0,7.0,89,0.00,,,0.01,Wunderground v.1.15,2013-01-06 11:36:00,
2013-01-06 05:38:00,38.3,35.3,30.23,NNW,343,4.0,7.0,89,0.00,,,0.01,Wunderground v.1.15,2013-01-06 11:38:00,
2013-01-06 05:41:00,38.2,35.2,30.23,North,349,5.0,7.0,89,0.00,,,0.01,Wunderground v.1.15,2013-01-06 11:41:00,
2013-01-06 05:42:00,38.2,35.2,30.23,NNW,337,5.0,7.0,89,0.00,,,0.01,Wunderground v.1.15,2013-01-06 11:42:00,
2013-01-06 05:44:00,38.0,35.0,30.23,NNW,340,5.0,7.0,89,0.00,,,0.01,Wunderground v.1.15,2013-01-06 11:44:00,
2013-01-06 05:46:00,38.0,35.0,30.23,NW,323,5.0,7.0,89,0.00,,,0.01,Wunderground v.1.15,2013-01-06 11:46:00,
2013-01-06 05:47:00,38.0,35.0,30.23,NW,326,5.0,7.0,89,0.00,,,0.01,Wunderground v.1.15,2013-01-06 11:47:00,
2013-01-06 05:50:00,37.9,34.9,30.23,NNW,333,5.0,7.0,89,0.00,,,0.01,Wunderground v.1.15,2013-01-06 11:50:00,
2013-01-06 05:52:00,37.8,34.8,30.23,North,354,5.0,8.0,89,0.00,,,0.01,Wunderground v.1.15,2013-01-06 11:52:00,
2013-01-06 05:53:00,37.8,34.8,30.23,North,359,5.0,8.0,89,0.00,,,0.01,Wunderground v.1.15,2013-01-06 11:53:00,
2013-01-06 05:55:00,37.8,34.8,30.23,North,356,5.0,8.0,89,0.00,,,0.01,Wunderground v.1.15,2013-01-06 11:55:00,
2013-01-06 05:57:00,37.6,34.7,30.23,NNW,328,5.0,8.0,89,0.00,,,0.01,Wunderground v.1.15,2013-01-06 11:57:00,
2013-01-06 06:00:00,37.6,34.7,30.24,NW,325,5.0,6.0,89,0.00,,,0.01,Wunderground v.1.15,2013-01-06 12:00:00,
2013-01-06 06:01:00,37.5,34.6,30.24,North,359,5.0,7.0,89,0.00,,,0.01,Wunderground v.1.15,2013-01-06 12:01:00,
2013-01-06 06:03:00,37.5,34.6,30.24,North,0,5.0,7.0,89,0.00,,,0.01,Wunderground v.1.15,2013-01-06 12:03:00,
2013-01-06 06:06:00,37.3,34.4,30.24,NNW,344,5.0,7.0,89,0.00,,,0.01,Wunderground v.1.15,2013-01-06 12:06:00,
2013-01-06 06:10:00,37.2,34.3,30.24,NW,316,5.0,5.0,89,0.00,,,0.01,Wunderground v.1.15,2013-01-06 12:10:00,
2013-01-06 06:11:00,37.2,34.3,30.24,NNW,337,5.0,5.0,89,0.00,,,0.01,Wunderground v.1.15,2013-01-06 12:11:00,
2013-01-06 06:15:00,37.2,34.3,30.25,NW,311,5.0,5.0,89,0.00,,,0.01,Wunderground v.1.15,2013-01-06 12:15:00,
2013-01-06 06:16:00,37.2,34.3,30.25,North,0,5.0,6.0,89,0.00,,,0.01,Wunderground v.1.15,2013-01-06 12:16:00,
2013-01-06 06:17:00,37.2,34.3,30.25,NNW,336,5.0,6.0,89,0.00,,,0.01,Wunderground v.1.15,2013-01-06 12:17:00,
2013-01-06 06:21:00,37.2,34.3,30.25,NNW,328,5.0,6.0,89,0.00,,,0.01,Wunderground v.1.15,2013-01-06 12:21:00,
2013-01-06 06:22:00,37.2,34.3,30.25,NNW,333,5.0,6.0,89,0.00,,,0.01,Wunderground v.1.15,2013-01-06 12:22:00,
2013-01-06 06:23:00,37.0,34.1,30.25,NNW,330,5.0,6.0,89,0.00,,,0.01,Wunderground v.1.15,2013-01-06 12:23:00,
2013-01-06 06:26:00,37.0,34.1,30.25,NNW,332,5.0,6.0,89,0.00,,,0.01,Wunderground v.1.15,2013-01-06 12:26:00,
2013-01-06 06:30:00,37.2,34.3,30.25,NNW,330,5.0,6.0,89,0.00,,,0.01,Wunderground v.1.15,2013-01-06 12:30:00,
2013-01-06 06:31:00,37.2,34.3,30.25,NNW,333,5.0,7.0,89,0.00,,,0.01,Wunderground v.1.15,2013-01-06 12:31:00,
2013-01-06 06:35:00,37.3,34.1,30.25,NNW,329,5.0,7.0,88,0.00,,,0.01,Wunderground v.1.15,2013-01-06 12:35:00,
2013-01-06 06:36:00,37.3,34.1,30.25,NW,322,5.0,7.0,88,0.00,,,0.01,Wunderground v.1.15,2013-01-06 12:36:00,
2013-01-06 06:38:00,37.3,34.1,30.25,NW,319,5.0,7.0,88,0.00,,,0.01,Wunderground v.1.15,2013-01-06 12:38:00,
2013-01-06 06:40:00,37.3,34.1,30.25,NW,326,5.0,6.0,88,0.00,,,0.01,Wunderground v.1.15,2013-01-06 12:40:00,
2013-01-06 06:41:00,37.3,34.1,30.25,NNW,329,6.0,6.0,88,0.00,,,0.01,Wunderground v.1.15,2013-01-06 12:41:00,
2013-01-06 06:43:00,37.3,34.1,30.25,NNW,330,6.0,6.0,88,0.00,,,0.01,Wunderground v.1.15,2013-01-06 12:43:00,
2013-01-06 06:45:00,37.5,34.0,30.25,NNW,337,6.0,6.0,87,0.00,,,0.01,Wunderground v.1.15,2013-01-06 12:45:00,
2013-01-06 06:47:00,37.5,34.0,30.26,NW,319,6.0,6.0,87,0.00,,,0.01,Wunderground v.1.15,2013-01-06 12:47:00,
2013-01-06 06:48:00,37.5,34.0,30.26,NW,304,6.0,6.0,87,0.00,,,0.01,Wunderground v.1.15,2013-01-06 12:48:00,
2013-01-06 06:52:00,37.6,33.8,30.26,NW,322,6.0,6.0,86,0.00,,,0.01,Wunderground v.1.15,2013-01-06 12:52:00,
2013-01-06 06:53:00,37.6,33.8,30.26,NNW,339,6.0,6.0,86,0.00,,,0.01,Wunderground v.1.15,2013-01-06 12:53:00,
2013-01-06 06:54:00,37.8,34.0,30.26,NW,325,6.0,6.0,86,0.00,,,0.01,Wunderground v.1.15,2013-01-06 12:54:00,
2013-01-06 07:00:00,37.8,34.0,30.26,NNW,336,6.0,6.0,86,0.00,,,0.01,Wunderground v.1.15,2013-01-06 13:00:00,
2013-01-06 07:02:00,37.6,33.5,30.27,NW,312,6.0,9.0,85,0.00,,,0.01,Wunderground v.1.15,2013-01-06 13:02:00,
2013-01-06 07:04:00,37.6,33.5,30.27,NNW,340,6.0,9.0,85,0.00,,,0.01,Wunderground v.1.15,2013-01-06 13:04:00,
2013-01-06 07:05:00,37.6,33.5,30.27,NNW,344,6.0,9.0,85,0.00,,,0.01,Wunderground v.1.15,2013-01-06 13:05:00,
2013-01-06 07:08:00,37.6,33.5,30.27,NNW,328,6.0,9.0,85,0.00,,,0.01,Wunderground v.1.15,2013-01-06 13:08:00,
2013-01-06 07:10:00,37.6,33.5,30.27,NNW,328,6.0,6.0,85,0.00,,,0.01,Wunderground v.1.15,2013-01-06 13:10:00,
2013-01-06 07:13:00,37.6,33.5,30.27,NNW,335,6.0,6.0,85,0.00,,,0.01,Wunderground v.1.15,2013-01-06 13:13:00,
2013-01-06 07:15:00,37.6,33.5,30.27,NNW,335,6.0,8.0,85,0.00,,,0.01,Wunderground v.1.15,2013-01-06 13:15:00,
2013-01-06 07:16:00,37.6,33.2,30.27,NW,322,6.0,8.0,84,0.00,,,0.01,Wunderground v.1.15,2013-01-06 13:16:00,
2013-01-06 07:21:00,37.6,33.2,30.27,NNW,335,5.0,5.0,84,0.00,,,0.01,Wunderground v.1.15,2013-01-06 13:21:00,
2013-01-06 07:22:00,37.6,33.2,30.27,NNW,336,5.0,6.0,84,0.00,,,0.01,Wunderground v.1.15,2013-01-06 13:22:00,
2013-01-06 07:23:00,37.6,33.2,30.27,NNW,330,5.0,6.0,84,0.00,,,0.01,Wunderground v.1.15,2013-01-06 13:23:00,
2013-01-06 07:24:00,37.6,33.2,30.27,NNW,342,5.0,6.0,84,0.00,,,0.01,Wunderground v.1.15,2013-01-06 13:24:00,
2013-01-06 07:27:00,37.6,33.2,30.27,NW,323,5.0,8.0,84,0.00,,,0.01,Wunderground v.1.15,2013-01-06 13:27:00,
2013-01-06 07:28:00,37.6,33.2,30.27,NW,325,5.0,8.0,84,0.00,,,0.01,Wunderground v.1.15,2013-01-06 13:28:00,
2013-01-06 07:34:00,37.6,32.9,30.28,NNW,339,5.0,8.0,83,0.00,,,0.01,Wunderground v.1.15,2013-01-06 13:34:00,
2013-01-06 07:35:00,37.6,32.9,30.28,North,349,5.0,8.0,83,0.00,,,0.01,Wunderground v.1.15,2013-01-06 13:35:00,
2013-01-06 07:37:00,37.6,32.9,30.28,NNW,335,5.0,8.0,83,0.00,,,0.01,Wunderground v.1.15,2013-01-06 13:37:00,
2013-01-06 07:40:00,37.5,32.8,30.28,NW,322,5.0,5.0,83,0.00,,,0.01,Wunderground v.1.15,2013-01-06 13:40:00,
2013-01-06 07:43:00,37.5,32.8,30.28,North,352,5.0,9.0,83,0.00,,,0.01,Wunderground v.1.15,2013-01-06 13:43:00,
2013-01-06 07:44:00,37.5,32.8,30.28,NNW,336,5.0,9.0,83,0.00,,,0.01,Wunderground v.1.15,2013-01-06 13:44:00,
2013-01-06 07:45:00,37.5,32.8,30.29,NNW,336,5.0,9.0,83,0.00,,,0.01,Wunderground v.1.15,2013-01-06 13:45:00,
2013-01-06 07:47:00,37.5,32.8,30.29,NNW,335,5.0,10.0,83,0.00,,,0.01,Wunderground v.1.15,2013-01-06 13:47:00,
2013-01-06 07:52:00,37.6,32.9,30.29,NW,318,6.0,8.0,83,0.00,,,0.01,Wunderground v.1.15,2013-01-06 13:52:00,
2013-01-06 07:53:00,37.6,32.9,30.29,NNW,332,6.0,8.0,83,0.00,,,0.01,Wunderground v.1.15,2013-01-06 13:53:00,
2013-01-06 07:55:00,37.8,32.8,30.29,NNW,333,6.0,8.0,82,0.00,,,0.01,Wunderground v.1.15,2013-01-06 13:55:00,
2013-01-06 07:58:00,37.9,32.9,30.29,NW,322,6.0,8.0,82,0.00,,,0.01,Wunderground v.1.15,2013-01-06 13:58:00,
2013-01-06 08:01:00,38.0,33.0,30.30,NW,316,6.0,8.0,82,0.00,,,0.01,Wunderground v.1.15,2013-01-06 14:01:00,
2013-01-06 08:03:00,38.2,32.9,30.30,North,352,6.0,8.0,81,0.00,,,0.01,Wunderground v.1.15,2013-01-06 14:03:00,
2013-01-06 08:04:00,38.3,33.0,30.30,NNW,328,6.0,8.0,81,0.00,,,0.01,Wunderground v.1.15,2013-01-06 14:04:00,
2013-01-06 08:06:00,38.3,33.0,30.30,North,359,6.0,8.0,81,0.00,,,0.01,Wunderground v.1.15,2013-01-06 14:06:00,
2013-01-06 08:10:00,38.5,33.2,30.30,NW,326,6.0,7.0,81,0.00,,,0.01,Wunderground v.1.15,2013-01-06 14:10:00,
2013-01-06 08:11:00,38.5,33.2,30.30,North,0,6.0,7.0,81,0.00,,,0.01,Wunderground v.1.15,2013-01-06 14:11:00,
2013-01-06 08:12:00,38.5,32.9,30.30,NW,325,5.0,7.0,80,0.00,,,0.01,Wunderground v.1.15,2013-01-06 14:12:00,
2013-01-06 08:16:00,38.8,33.2,30.30,North,357,5.0,8.0,80,0.00,,,0.01,Wunderground v.1.15,2013-01-06 14:16:00,
2013-01-06 08:17:00,38.8,33.2,30.30,North,357,6.0,8.0,80,0.00,,,0.01,Wunderground v.1.15,2013-01-06 14:17:00,
2013-01-06 08:21:00,39.1,33.1,30.30,North,350,6.0,7.0,79,0.00,,,0.01,Wunderground v.1.15,2013-01-06 14:21:00,
2013-01-06 08:22:00,39.1,33.1,30.30,North,359,6.0,7.0,79,0.00,,,0.01,Wunderground v.1.15,2013-01-06 14:22:00,
2013-01-06 08:23:00,39.1,33.1,30.30,NNW,328,6.0,9.0,79,0.00,,,0.01,Wunderground v.1.15,2013-01-06 14:23:00,
2013-01-06 08:24:00,39.1,33.1,30.30,NNW,329,7.0,9.0,79,0.00,,,0.01,Wunderground v.1.15,2013-01-06 14:24:00,
2013-01-06 08:28:00,39.5,33.5,30.30,North,359,7.0,11.0,79,0.00,,,0.01,Wunderground v.1.15,2013-01-06 14:28:00,
2013-01-06 08:30:00,39.5,33.2,30.31,NW,318,7.0,8.0,78,0.00,,,0.01,Wunderground v.1.15,2013-01-06 14:30:00,
2013-01-06 08:33:00,39.8,33.5,30.31,NNW,336,7.0,13.0,78,0.00,,,0.01,Wunderground v.1.15,2013-01-06 14:33:00,
2013-01-06 08:35:00,39.8,33.2,30.31,NW,325,7.0,13.0,77,0.00,,,0.01,Wunderground v.1.15,2013-01-06 14:35:00,
2013-01-06 08:36:00,39.9,33.3,30.31,North,4,7.0,13.0,77,0.00,,,0.01,Wunderground v.1.15,2013-01-06 14:36:00,
2013-01-06 08:40:00,40.1,33.5,30.31,North,352,7.0,9.0,77,0.00,,,0.01,Wunderground v.1.15,2013-01-06 14:40:00,
2013-01-06 08:41:00,40.1,33.5,30.31,NNW,347,7.0,9.0,77,0.00,,,0.01,Wunderground v.1.15,2013-01-06 14:41:00,
2013-01-06 08:44:00,40.3,33.3,30.31,NNW,333,8.0,11.0,76,0.00,,,0.01,Wunderground v.1.15,2013-01-06 14:44:00,
2013-01-06 08:48:00,40.5,33.5,30.32,NW,315,8.0,11.0,76,0.00,,,0.01,Wunderground v.1.15,2013-01-06 14:48:00,
2013-01-06 08:50:00,40.6,33.6,30.32,NNW,336,7.0,7.0,76,0.00,,,0.01,Wunderground v.1.15,2013-01-06 14:50:00,
2013-01-06 08:52:00,40.8,33.8,30.32,North,352,7.0,8.0,76,0.00,,,0.01,Wunderground v.1.15,2013-01-06 14:52:00,
2013-01-06 08:53:00,40.8,33.8,30.32,NW,316,7.0,8.0,76,0.00,,,0.01,Wunderground v.1.15,2013-01-06 14:53:00,
2013-01-06 08:57:00,41.1,33.8,30.32,NNW,342,7.0,11.0,75,0.00,,,0.01,Wunderground v.1.15,2013-01-06 14:57:00,
2013-01-06 08:58:00,41.1,33.8,30.32,NNW,330,7.0,11.0,75,0.00,,,0.01,Wunderground v.1.15,2013-01-06 14:58:00,
2013-01-06 09:01:00,41.3,34.0,30.32,North,359,8.0,8.0,75,0.00,,,0.01,Wunderground v.1.15,2013-01-06 15:01:00,
2013-01-06 09:02:00,41.3,34.0,30.32,NW,325,8.0,8.0,75,0.00,,,0.01,Wunderground v.1.15,2013-01-06 15:02:00,
2013-01-06 09:03:00,41.5,34.2,30.32,NW,315,8.0,8.0,75,0.00,,,0.01,Wunderground v.1.15,2013-01-06 15:03:00,
2013-01-06 09:04:00,41.6,33.9,30.32,NW,326,7.0,8.0,74,0.00,,,0.01,Wunderground v.1.15,2013-01-06 15:04:00,
2013-01-06 09:10:00,42.2,33.8,30.32,NNW,336,8.0,8.0,72,0.00,,,0.01,Wunderground v.1.15,2013-01-06 15:10:00,
2013-01-06 09:12:00,42.5,34.1,30.32,NNW,343,7.0,8.0,72,0.00,,,0.01,Wunderground v.1.15,2013-01-06 15:12:00,
2013-01-06 09:13:00,42.6,34.2,30.32,NNW,329,7.0,8.0,72,0.00,,,0.01,Wunderground v.1.15,2013-01-06 15:13:00,
2013-01-06 09:17:00,43.1,34.0,30.33,NNW,347,7.0,8.0,70,0.00,,,0.01,Wunderground v.1.15,2013-01-06 15:17:00,
2013-01-06 09:18:00,43.2,34.1,30.33,NNW,332,7.0,10.0,70,0.00,,,0.01,Wunderground v.1.15,2013-01-06 15:18:00,
2013-01-06 09:21:00,43.3,33.8,30.33,North,0,6.0,10.0,69,0.00,,,0.01,Wunderground v.1.15,2013-01-06 15:21:00,
2013-01-06 09:23:00,43.5,34.0,30.33,NW,322,6.0,14.0,69,0.00,,,0.01,Wunderground v.1.15,2013-01-06 15:23:00,
2013-01-06 09:24:00,43.6,33.7,30.33,North,8,7.0,14.0,68,0.00,,,0.01,Wunderground v.1.15,2013-01-06 15:24:00,
2013-01-06 09:26:00,43.6,33.4,30.33,North,356,7.0,14.0,67,0.00,,,0.01,Wunderground v.1.15,2013-01-06 15:26:00,
2013-01-06 09:28:00,43.8,33.6,30.33,NNW,336,8.0,14.0,67,0.00,,,0.01,Wunderground v.1.15,2013-01-06 15:28:00,
2013-01-06 09:30:00,43.9,33.6,30.33,NNW,332,8.0,8.0,67,0.00,,,0.01,Wunderground v.1.15,2013-01-06 15:30:00,
2013-01-06 09:31:00,43.9,33.6,30.33,NNW,347,8.0,8.0,67,0.00,,,0.01,Wunderground v.1.15,2013-01-06 15:31:00,
2013-01-06 09:34:00,44.1,33.5,30.33,NNW,347,8.0,8.0,66,0.00,,,0.01,Wunderground v.1.15,2013-01-06 15:34:00,
2013-01-06 09:36:00,44.2,33.2,30.33,NNW,335,8.0,8.0,65,0.00,,,0.01,Wunderground v.1.15,2013-01-06 15:36:00,
2013-01-06 09:38:00,44.3,32.9,30.33,NNW,333,8.0,10.0,64,0.00,,,0.01,Wunderground v.1.15,2013-01-06 15:38:00,
2013-01-06 09:41:00,44.5,33.1,30.33,NNW,329,8.0,13.0,64,0.00,,,0.01,Wunderground v.1.15,2013-01-06 15:41:00,
2013-01-06 09:42:00,44.6,32.8,30.33,North,349,9.0,13.0,63,0.00,,,0.01,Wunderground v.1.15,2013-01-06 15:42:00,
2013-01-06 09:43:00,44.6,32.8,30.33,North,0,9.0,13.0,63,0.00,,,0.01,Wunderground v.1.15,2013-01-06 15:43:00,
2013-01-06 09:44:00,44.6,32.4,30.33,NNW,336,9.0,13.0,62,0.00,,,0.01,Wunderground v.1.15,2013-01-06 15:44:00,
2013-01-06 09:48:00,45.1,33.2,30.33,North,0,9.0,13.0,63,0.00,,,0.01,Wunderground v.1.15,2013-01-06 15:48:00,
2013-01-06 09:50:00,45.2,32.9,30.33,NW,309,9.0,13.0,62,0.00,,,0.01,Wunderground v.1.15,2013-01-06 15:50:00,
2013-01-06 09:51:00,45.4,33.1,30.33,NW,323,8.0,8.0,62,0.00,,,0.01,Wunderground v.1.15,2013-01-06 15:51:00,
2013-01-06 09:53:00,45.5,33.2,30.33,North,1,8.0,8.0,62,0.00,,,0.01,Wunderground v.1.15,2013-01-06 15:53:00,
2013-01-06 09:55:00,45.7,32.6,30.33,North,349,8.0,11.0,60,0.00,,,0.01,Wunderground v.1.15,2013-01-06 15:55:00,
2013-01-06 09:56:00,45.7,32.6,30.33,North,0,8.0,11.0,60,0.00,,,0.01,Wunderground v.1.15,2013-01-06 15:56:00,
2013-01-06 09:57:00,45.8,33.1,30.33,NW,312,8.0,11.0,61,0.00,,,0.01,Wunderground v.1.15,2013-01-06 15:57:00,
2013-01-06 10:00:00,46.0,32.5,30.33,NNW,347,8.0,8.0,59,0.00,,,0.01,Wunderground v.1.15,2013-01-06 16:00:00,
2013-01-06 10:01:00,46.0,32.0,30.34,NW,316,9.0,9.0,58,0.00,,,0.01,Wunderground v.1.15,2013-01-06 16:01:00,
2013-01-06 10:04:00,46.2,32.7,30.34,NW,316,9.0,9.0,59,0.00,,,0.01,Wunderground v.1.15,2013-01-06 16:04:00,
2013-01-06 10:05:00,46.2,32.7,30.34,NNW,339,9.0,9.0,59,0.00,,,0.01,Wunderground v.1.15,2013-01-06 16:05:00,
2013-01-06 10:06:00,46.4,32.4,30.34,NNW,337,9.0,9.0,58,0.00,,,0.01,Wunderground v.1.15,2013-01-06 16:06:00,
2013-01-06 10:08:00,46.7,33.1,30.34,NNW,344,8.0,9.0,59,0.00,,,0.01,Wunderground v.1.15,2013-01-06 16:08:00,
2013-01-06 10:10:00,47.0,33.0,30.34,NNW,330,7.0,7.0,58,0.00,,,0.01,Wunderground v.1.15,2013-01-06 16:10:00,
2013-01-06 10:13:00,47.1,32.2,30.34,NNW,336,7.0,11.0,56,0.00,,,0.01,Wunderground v.1.15,2013-01-06 16:13:00,
2013-01-06 10:14:00,47.1,32.2,30.34,North,356,7.0,11.0,56,0.00,,,0.01,Wunderground v.1.15,2013-01-06 16:14:00,
2013-01-06 10:18:00,47.4,32.0,30.33,NW,320,8.0,13.0,55,0.00,,,0.01,Wunderground v.1.15,2013-01-06 16:18:00,
2013-01-06 10:20:00,47.4,32.0,30.33,NNW,347,9.0,10.0,55,0.00,,,0.01,Wunderground v.1.15,2013-01-06 16:20:00,
2013-01-06 10:23:00,47.7,31.9,30.33,NNE,20,9.0,14.0,54,0.00,,,0.01,Wunderground v.1.15,2013-01-06 16:23:00,
2013-01-06 10:25:00,48.0,32.1,30.33,North,0,8.0,14.0,54,0.00,,,0.01,Wunderground v.1.15,2013-01-06 16:25:00,
2013-01-06 10:27:00,48.2,32.3,30.33,NNW,343,8.0,14.0,54,0.00,,,0.01,Wunderground v.1.15,2013-01-06 16:27:00,
2013-01-06 10:28:00,48.3,32.4,30.33,NE,38,8.0,14.0,54,0.00,,,0.01,Wunderground v.1.15,2013-01-06 16:28:00,
2013-01-06 10:30:00,48.3,31.9,30.33,NNW,342,8.0,12.0,53,0.00,,,0.01,Wunderground v.1.15,2013-01-06 16:30:00,
2013-01-06 10:33:00,48.8,32.9,30.33,NNW,339,7.0,12.0,54,0.00,,,0.01,Wunderground v.1.15,2013-01-06 16:33:00,
2013-01-06 10:36:00,49.1,31.7,30.33,North,0,8.0,12.0,51,0.00,,,0.01,Wunderground v.1.15,2013-01-06 16:36:00,
2013-01-06 10:37:00,49.2,31.8,30.33,North,357,8.0,12.0,51,0.00,,,0.01,Wunderground v.1.15,2013-01-06 16:37:00,
2013-01-06 10:40:00,49.5,32.6,30.33,NNW,336,7.0,7.0,52,0.00,,,0.01,Wunderground v.1.15,2013-01-06 16:40:00,
2013-01-06 10:43:00,49.9,32.5,30.33,NNW,329,7.0,10.0,51,0.00,,,0.01,Wunderground v.1.15,2013-01-06 16:43:00,
2013-01-06 10:45:00,50.1,32.7,30.33,NNW,340,7.0,12.0,51,0.00,,,0.01,Wunderground v.1.15,2013-01-06 16:45:00,
2013-01-06 10:48:00,50.1,31.2,30.33,NNW,340,7.0,12.0,48,0.00,,,0.01,Wunderground v.1.15,2013-01-06 16:48:00,
2013-01-06 10:50:00,50.2,31.2,30.33,NNE,17,7.0,7.0,48,0.00,,,0.01,Wunderground v.1.15,2013-01-06 16:50:00,
2013-01-06 10:51:00,50.4,31.4,30.33,NNE,31,7.0,8.0,48,0.00,,,0.01,Wunderground v.1.15,2013-01-06 16:51:00,
2013-01-06 10:52:00,50.4,31.4,30.33,NNE,30,7.0,10.0,48,0.00,,,0.01,Wunderground v.1.15,2013-01-06 16:52:00,
2013-01-06 10:56:00,50.5,31.5,30.33,NNE,23,7.0,12.0,48,0.00,,,0.01,Wunderground v.1.15,2013-01-06 16:56:00,
2013-01-06 10:57:00,50.5,31.5,30.33,NNW,339,7.0,12.0,48,0.00,,,0.01,Wunderground v.1.15,2013-01-06 16:57:00,
2013-01-06 11:00:00,50.8,32.3,30.33,North,353,6.0,6.0,49,0.00,,,0.01,Wunderground v.1.15,2013-01-06 17:00:00,
2013-01-06 11:01:00,51.0,31.5,30.32,NW,325,6.0,9.0,47,0.00,,,0.01,Wunderground v.1.15,2013-01-06 17:01:00,
2013-01-06 11:04:00,51.3,31.7,30.32,North,8,6.0,12.0,47,0.00,,,0.01,Wunderground v.1.15,2013-01-06 17:04:00,
2013-01-06 11:06:00,51.4,31.3,30.32,NE,34,6.0,12.0,46,0.00,,,0.01,Wunderground v.1.15,2013-01-06 17:06:00,
2013-01-06 11:07:00,51.4,31.3,30.32,North,359,6.0,12.0,46,0.00,,,0.01,Wunderground v.1.15,2013-01-06 17:07:00,
2013-01-06 11:08:00,51.4,31.8,30.32,NNE,24,7.0,12.0,47,0.00,,,0.01,Wunderground v.1.15,2013-01-06 17:08:00,
2013-01-06 11:13:00,51.7,32.1,30.32,NNW,342,7.0,12.0,47,0.00,,,0.01,Wunderground v.1.15,2013-01-06 17:13:00,
2013-01-06 11:16:00,51.9,32.3,30.32,NW,323,8.0,12.0,47,0.00,,,0.01,Wunderground v.1.15,2013-01-06 17:16:00,
2013-01-06 11:17:00,51.9,31.2,30.32,North,0,8.0,12.0,45,0.00,,,0.01,Wunderground v.1.15,2013-01-06 17:17:00,
2013-01-06 11:18:00,52.0,31.3,30.32,NE,34,8.0,12.0,45,0.00,,,0.01,Wunderground v.1.15,2013-01-06 17:18:00,
2013-01-06 11:20:00,52.0,30.2,30.32,NW,320,8.0,12.0,43,0.00,,,0.01,Wunderground v.1.15,2013-01-06 17:20:00,
2013-01-06 11:25:00,52.5,29.5,30.32,NNE,14,9.0,12.0,41,0.00,,,0.01,Wunderground v.1.15,2013-01-06 17:25:00,
2013-01-06 11:27:00,52.6,29.5,30.32,NNW,333,9.0,12.0,41,0.00,,,0.01,Wunderground v.1.15,2013-01-06 17:27:00,
2013-01-06 11:28:00,52.8,29.7,30.32,North,357,8.0,12.0,41,0.00,,,0.01,Wunderground v.1.15,2013-01-06 17:28:00,
2013-01-06 11:30:00,52.9,28.0,30.32,North,359,9.0,14.0,38,0.00,,,0.01,Wunderground v.1.15,2013-01-06 17:30:00,
2013-01-06 11:34:00,53.1,28.8,30.31,North,0,8.0,11.0,39,0.00,,,0.01,Wunderground v.1.15,2013-01-06 17:34:00,
2013-01-06 11:35:00,53.1,28.8,30.31,North,4,8.0,11.0,39,0.00,,,0.01,Wunderground v.1.15,2013-01-06 17:35:00,
2013-01-06 11:36:00,53.2,28.9,30.31,North,4,8.0,14.0,39,0.00,,,0.01,Wunderground v.1.15,2013-01-06 17:36:00,
2013-01-06 11:41:00,53.5,29.1,30.31,North,354,8.0,8.0,39,0.00,,,0.01,Wunderground v.1.15,2013-01-06 17:41:00,
2013-01-06 11:43:00,53.6,29.2,30.31,NNE,24,8.0,8.0,39,0.00,,,0.01,Wunderground v.1.15,2013-01-06 17:43:00,
2013-01-06 11:44:00,53.6,28.6,30.31,NE,41,8.0,8.0,38,0.00,,,0.01,Wunderground v.1.15,2013-01-06 17:44:00,
2013-01-06 11:45:00,53.8,28.8,30.31,NNW,330,8.0,8.0,38,0.00,,,0.01,Wunderground v.1.15,2013-01-06 17:45:00,
2013-01-06 11:46:00,53.9,29.5,30.30,NNW,337,8.0,8.0,39,0.00,,,0.01,Wunderground v.1.15,2013-01-06 17:46:00,
2013-01-06 11:50:00,54.4,28.6,30.30,NE,42,7.0,13.0,37,0.00,,,0.01,Wunderground v.1.15,2013-01-06 17:50:00,
2013-01-06 11:53:00,54.2,27.8,30.30,North,0,7.0,12.0,36,0.00,,,0.01,Wunderground v.1.15,2013-01-06 17:53:00,
2013-01-06 11:54:00,54.2,27.8,30.30,North,0,7.0,12.0,36,0.00,,,0.01,Wunderground v.1.15,2013-01-06 17:54:00,
2013-01-06 11:55:00,54.2,27.8,30.30,North,0,7.0,12.0,36,0.00,,,0.01,Wunderground v.1.15,2013-01-06 17:55:00,
2013-01-06 11:58:00,54.2,26.4,30.30,North,353,8.0,14.0,34,0.00,,,0.01,Wunderground v.1.15,2013-01-06 17:58:00,
2013-01-06 12:00:00,54.2,26.4,30.30,NW,315,9.0,9.0,34,0.00,,,0.01,Wunderground v.1.15,2013-01-06 18:00:00,
2013-01-06 12:03:00,54.2,24.9,30.29,NNW,344,8.0,13.0,32,0.00,,,0.01,Wunderground v.1.15,2013-01-06 18:03:00,
2013-01-06 12:05:00,54.2,25.7,30.29,North,0,9.0,13.0,33,0.00,,,0.01,Wunderground v.1.15,2013-01-06 18:05:00,
2013-01-06 12:06:00,54.4,26.6,30.29,NNE,17,9.0,13.0,34,0.00,,,0.01,Wunderground v.1.15,2013-01-06 18:06:00,
2013-01-06 12:10:00,54.7,27.6,30.29,NE,34,9.0,11.0,35,0.00,,,0.01,Wunderground v.1.15,2013-01-06 18:10:00,
2013-01-06 12:11:00,54.7,26.8,30.29,North,359,9.0,11.0,34,0.00,,,0.01,Wunderground v.1.15,2013-01-06 18:11:00,
2013-01-06 12:12:00,54.7,26.8,30.29,North,0,9.0,11.0,34,0.00,,,0.01,Wunderground v.1.15,2013-01-06 18:12:00,
2013-01-06 12:13:00,54.7,27.6,30.29,North,3,9.0,11.0,35,0.00,,,0.01,Wunderground v.1.15,2013-01-06 18:13:00,
2013-01-06 12:18:00,54.7,26.1,30.29,NNE,18,9.0,14.0,33,0.00,,,0.01,Wunderground v.1.15,2013-01-06 18:18:00,
2013-01-06 12:20:00,54.5,26.0,30.29,NNE,23,9.0,9.0,33,0.00,,,0.01,Wunderground v.1.15,2013-01-06 18:20:00,
2013-01-06 12:21:00,54.5,26.7,30.29,North,357,9.0,13.0,34,0.00,,,0.01,Wunderground v.1.15,2013-01-06 18:21:00,
2013-01-06 12:22:00,54.7,26.1,30.29,NE,54,9.0,13.0,33,0.00,,,0.01,Wunderground v.1.15,2013-01-06 18:22:00,
2013-01-06 12:26:00,54.7,27.6,30.29,NNE,17,10.0,13.0,35,0.00,,,0.01,Wunderground v.1.15,2013-01-06 18:26:00,
2013-01-06 12:27:00,54.7,27.6,30.29,NNW,333,9.0,13.0,35,0.00,,,0.01,Wunderground v.1.15,2013-01-06 18:27:00,
2013-01-06 12:28:00,54.7,27.6,30.29,NNW,333,9.0,13.0,35,0.00,,,0.01,Wunderground v.1.15,2013-01-06 18:28:00,
2013-01-06 12:30:00,54.8,27.6,30.29,North,359,9.0,9.0,35,0.00,,,0.01,Wunderground v.1.15,2013-01-06 18:30:00,
2013-01-06 12:32:00,54.8,27.6,30.28,NNW,328,9.0,11.0,35,0.00,,,0.01,Wunderground v.1.15,2013-01-06 18:32:00,
2013-01-06 12:33:00,55.0,28.5,30.28,North,349,9.0,11.0,36,0.00,,,0.01,Wunderground v.1.15,2013-01-06 18:33:00,
2013-01-06 12:38:00,55.1,27.9,30.28,North,0,8.0,12.0,35,0.00,,,0.01,Wunderground v.1.15,2013-01-06 18:38:00,
2013-01-06 12:40:00,55.1,27.9,30.28,North,349,8.0,10.0,35,0.00,,,0.01,Wunderground v.1.15,2013-01-06 18:40:00,
2013-01-06 12:42:00,55.1,27.2,30.28,NE,38,8.0,10.0,34,0.00,,,0.01,Wunderground v.1.15,2013-01-06 18:42:00,
2013-01-06 12:46:00,55.4,27.5,30.27,NE,42,8.0,11.0,34,0.00,,,0.01,Wunderground v.1.15,2013-01-06 18:46:00,
2013-01-06 12:47:00,55.6,27.6,30.27,NNE,28,8.0,11.0,34,0.00,,,0.01,Wunderground v.1.15,2013-01-06 18:47:00,
2013-01-06 12:50:00,55.7,27.7,30.27,NE,40,7.0,7.0,34,0.00,,,0.01,Wunderground v.1.15,2013-01-06 18:50:00,
2013-01-06 12:51:00,55.7,27.0,30.27,NNW,346,8.0,8.0,33,0.00,,,0.01,Wunderground v.1.15,2013-01-06 18:51:00,
2013-01-06 12:53:00,55.7,26.3,30.27,NNE,20,8.0,10.0,32,0.00,,,0.01,Wunderground v.1.15,2013-01-06 18:53:00,
2013-01-06 12:56:00,55.9,27.2,30.27,NNE,27,8.0,10.0,33,0.00,,,0.01,Wunderground v.1.15,2013-01-06 18:56:00,
2013-01-06 12:57:00,55.9,27.2,30.27,NNE,31,7.0,10.0,33,0.00,,,0.01,Wunderground v.1.15,2013-01-06 18:57:00,
2013-01-06 13:00:00,56.2,27.4,30.27,NNE,23,7.0,11.0,33,0.00,,,0.01,Wunderground v.1.15,2013-01-06 19:00:00,
2013-01-06 13:01:00,56.0,27.3,30.26,NNE,20,8.0,12.0,33,0.00,,,0.01,Wunderground v.1.15,2013-01-06 19:01:00,
2013-01-06 13:02:00,55.9,27.9,30.26,NNE,25,8.0,12.0,34,0.00,,,0.01,Wunderground v.1.15,2013-01-06 19:02:00,
2013-01-06 13:06:00,55.7,28.4,30.26,North,8,8.0,12.0,35,0.00,,,0.01,Wunderground v.1.15,2013-01-06 19:06:00,
2013-01-06 13:08:00,55.9,28.6,30.26,NE,34,8.0,12.0,35,0.00,,,0.01,Wunderground v.1.15,2013-01-06 19:08:00,
2013-01-06 13:10:00,56.0,28.7,30.26,North,0,8.0,15.0,35,0.00,,,0.01,Wunderground v.1.15,2013-01-06 19:10:00,
2013-01-06 13:11:00,56.0,28.0,30.26,North,6,8.0,15.0,34,0.00,,,0.01,Wunderground v.1.15,2013-01-06 19:11:00,
2013-01-06 13:12:00,56.0,28.0,30.26,North,357,8.0,15.0,34,0.00,,,0.01,Wunderground v.1.15,2013-01-06 19:12:00,
2013-01-06 13:17:00,56.0,27.3,30.25,North,0,8.0,15.0,33,0.00,,,0.01,Wunderground v.1.15,2013-01-06 19:17:00,
2013-01-06 13:18:00,56.0,27.3,30.25,NNW,332,8.0,15.0,33,0.00,,,0.01,Wunderground v.1.15,2013-01-06 19:18:00,
2013-01-06 13:20:00,56.0,28.0,30.25,North,0,8.0,8.0,34,0.00,,,0.01,Wunderground v.1.15,2013-01-06 19:20:00,
2013-01-06 13:21:00,56.0,28.0,30.25,NNE,17,8.0,8.0,34,0.00,,,0.01,Wunderground v.1.15,2013-01-06 19:21:00,
2013-01-06 13:22:00,56.0,28.0,30.25,NNE,20,8.0,8.0,34,0.00,,,0.01,Wunderground v.1.15,2013-01-06 19:22:00,
2013-01-06 13:26:00,56.2,28.2,30.25,NNE,18,8.0,8.0,34,0.00,,,0.01,Wunderground v.1.15,2013-01-06 19:26:00,
2013-01-06 13:27:00,56.2,28.9,30.25,NNE,31,8.0,12.0,35,0.00,,,0.01,Wunderground v.1.15,2013-01-06 19:27:00,
2013-01-06 13:28:00,56.3,28.3,30.25,NE,42,7.0,12.0,34,0.00,,,0.01,Wunderground v.1.15,2013-01-06 19:28:00,
2013-01-06 13:31:00,56.3,27.5,30.24,North,356,8.0,11.0,33,0.00,,,0.01,Wunderground v.1.15,2013-01-06 19:31:00,
2013-01-06 13:33:00,56.3,28.3,30.24,NNW,340,8.0,11.0,34,0.00,,,0.01,Wunderground v.1.15,2013-01-06 19:33:00,
2013-01-06 13:36:00,56.5,28.4,30.24,North,356,8.0,11.0,34,0.00,,,0.01,Wunderground v.1.15,2013-01-06 19:36:00,
2013-01-06 13:38:00,56.6,29.2,30.24,NNE,32,7.0,11.0,35,0.00,,,0.01,Wunderground v.1.15,2013-01-06 19:38:00,
2013-01-06 13:40:00,56.6,27.8,30.24,ENE,62,8.0,11.0,33,0.00,,,0.01,Wunderground v.1.15,2013-01-06 19:40:00,
2013-01-06 13:42:00,56.5,28.4,30.24,NE,49,8.0,11.0,34,0.00,,,0.01,Wunderground v.1.15,2013-01-06 19:42:00,
2013-01-06 13:43:00,56.5,28.4,30.24,NNE,24,8.0,11.0,34,0.00,,,0.01,Wunderground v.1.15,2013-01-06 19:43:00,
2013-01-06 13:47:00,56.5,28.4,30.23,North,359,9.0,14.0,34,0.00,,,0.01,Wunderground v.1.15,2013-01-06 19:47:00,
2013-01-06 13:51:00,56.7,28.6,30.23,NNE,32,8.0,9.0,34,0.00,,,0.01,Wunderground v.1.15,2013-01-06 19:51:00,
2013-01-06 13:55:00,56.9,27.3,30.23,North,6,7.0,10.0,32,0.00,,,0.01,Wunderground v.1.15,2013-01-06 19:55:00,
2013-01-06 13:57:00,57.0,27.4,30.23,North,0,7.0,11.0,32,0.00,,,0.01,Wunderground v.1.15,2013-01-06 19:57:00,
2013-01-06 14:02:00,56.9,27.3,30.22,North,0,7.0,8.0,32,0.00,,,0.01,Wunderground v.1.15,2013-01-06 20:02:00,
2013-01-06 14:05:00,57.0,28.1,30.22,North,0,7.0,8.0,33,0.00,,,0.01,Wunderground v.1.15,2013-01-06 20:05:00,
2013-01-06 14:07:00,57.0,27.4,30.22,North,350,7.0,11.0,32,0.00,,,0.01,Wunderground v.1.15,2013-01-06 20:07:00,
2013-01-06 14:11:00,57.3,28.4,30.22,North,0,7.0,7.0,33,0.00,,,0.01,Wunderground v.1.15,2013-01-06 20:11:00,
2013-01-06 14:14:00,57.3,28.4,30.22,NNE,14,8.0,10.0,33,0.00,,,0.01,Wunderground v.1.15,2013-01-06 20:14:00,
2013-01-06 14:15:00,57.5,28.6,30.22,NNE,32,8.0,10.0,33,0.00,,,0.01,Wunderground v.1.15,2013-01-06 20:15:00,
2013-01-06 14:20:00,57.3,26.9,30.22,NNE,25,9.0,9.0,31,0.00,,,0.01,Wunderground v.1.15,2013-01-06 20:20:00,
2013-01-06 14:21:00,57.3,26.9,30.22,NE,40,9.0,16.0,31,0.00,,,0.01,Wunderground v.1.15,2013-01-06 20:21:00,
2013-01-06 14:22:00,57.2,26.0,30.22,NE,41,9.0,16.0,30,0.00,,,0.01,Wunderground v.1.15,2013-01-06 20:22:00,
2013-01-06 14:25:00,57.2,27.6,30.22,NNE,25,9.0,16.0,32,0.00,,,0.01,Wunderground v.1.15,2013-01-06 20:25:00,
2013-01-06 14:26:00,57.3,26.1,30.22,NNE,24,9.0,16.0,30,0.00,,,0.01,Wunderground v.1.15,2013-01-06 20:26:00,
2013-01-06 14:27:00,57.3,26.9,30.22,NNE,18,8.0,16.0,31,0.00,,,0.01,Wunderground v.1.15,2013-01-06 20:27:00,
2013-01-06 14:30:00,57.6,27.2,30.22,NNE,28,7.0,10.0,31,0.00,,,0.01,Wunderground v.1.15,2013-01-06 20:30:00,
2013-01-06 14:32:00,57.6,27.2,30.22,NE,35,7.0,10.0,31,0.00,,,0.01,Wunderground v.1.15,2013-01-06 20:32:00,
2013-01-06 14:37:00,57.3,28.4,30.22,NNE,16,7.0,10.0,33,0.00,,,0.01,Wunderground v.1.15,2013-01-06 20:37:00,
2013-01-06 14:38:00,57.5,29.3,30.22,NNW,346,7.0,10.0,34,0.00,,,0.01,Wunderground v.1.15,2013-01-06 20:38:00,
2013-01-06 14:40:00,57.6,28.7,30.22,NNE,18,7.0,7.0,33,0.00,,,0.01,Wunderground v.1.15,2013-01-06 20:40:00,
2013-01-06 14:43:00,58.0,29.0,30.22,North,1,6.0,9.0,33,0.00,,,0.01,Wunderground v.1.15,2013-01-06 20:43:00,
2013-01-06 14:45:00,58.0,29.0,30.22,North,3,6.0,10.0,33,0.00,,,0.01,Wunderground v.1.15,2013-01-06 20:45:00,
2013-01-06 14:48:00,58.0,29.0,30.22,NE,44,6.0,10.0,33,0.00,,,0.01,Wunderground v.1.15,2013-01-06 20:48:00,
2013-01-06 14:49:00,58.0,29.0,30.22,NE,41,6.0,12.0,33,0.00,,,0.01,Wunderground v.1.15,2013-01-06 20:49:00,
2013-01-06 14:52:00,57.8,28.9,30.22,NE,34,6.0,12.0,33,0.00,,,0.01,Wunderground v.1.15,2013-01-06 20:52:00,
2013-01-06 14:54:00,57.8,28.9,30.22,ENE,76,6.0,12.0,33,0.00,,,0.01,Wunderground v.1.15,2013-01-06 20:54:00,
2013-01-06 14:55:00,58.0,29.8,30.22,North,359,6.0,12.0,34,0.00,,,0.01,Wunderground v.1.15,2013-01-06 20:55:00,
2013-01-06 14:58:00,58.1,29.1,30.22,North,0,6.0,12.0,33,0.00,,,0.01,Wunderground v.1.15,2013-01-06 20:58:00,
2013-01-06 15:00:00,58.3,30.7,30.22,NW,325,5.0,5.0,35,0.00,,,0.01,Wunderground v.1.15,2013-01-06 21:00:00,
2013-01-06 15:01:00,58.3,29.3,30.21,NNW,343,5.0,5.0,33,0.00,,,0.01,Wunderground v.1.15,2013-01-06 21:01:00,
2013-01-06 15:06:00,58.7,28.9,30.21,NNW,328,5.0,13.0,32,0.00,,,0.01,Wunderground v.1.15,2013-01-06 21:06:00,
2013-01-06 15:08:00,58.7,29.6,30.21,North,0,5.0,13.0,33,0.00,,,0.01,Wunderground v.1.15,2013-01-06 21:08:00,
2013-01-06 15:11:00,58.6,28.8,30.21,NNE,30,6.0,6.0,32,0.00,,,0.01,Wunderground v.1.15,2013-01-06 21:11:00,
2013-01-06 15:12:00,58.4,28.6,30.21,North,0,6.0,6.0,32,0.00,,,0.01,Wunderground v.1.15,2013-01-06 21:12:00,
2013-01-06 15:13:00,58.4,28.6,30.21,North,356,6.0,6.0,32,0.00,,,0.01,Wunderground v.1.15,2013-01-06 21:13:00,
2013-01-06 15:18:00,58.4,30.1,30.22,NW,326,6.0,11.0,34,0.00,,,0.01,Wunderground v.1.15,2013-01-06 21:18:00,
2013-01-06 15:19:00,58.4,30.1,30.22,NNE,20,6.0,11.0,34,0.00,,,0.01,Wunderground v.1.15,2013-01-06 21:19:00,
2013-01-06 15:20:00,58.4,30.1,30.22,North,7,6.0,10.0,34,0.00,,,0.01,Wunderground v.1.15,2013-01-06 21:20:00,
2013-01-06 15:22:00,58.4,30.1,30.22,NNE,28,6.0,10.0,34,0.00,,,0.01,Wunderground v.1.15,2013-01-06 21:22:00,
2013-01-06 15:25:00,58.4,29.4,30.22,NW,312,6.0,10.0,33,0.00,,,0.01,Wunderground v.1.15,2013-01-06 21:25:00,
2013-01-06 15:26:00,58.4,29.4,30.22,North,353,5.0,10.0,33,0.00,,,0.01,Wunderground v.1.15,2013-01-06 21:26:00,
2013-01-06 15:27:00,58.4,28.6,30.22,NE,54,6.0,10.0,32,0.00,,,0.01,Wunderground v.1.15,2013-01-06 21:27:00,
2013-01-06 15:28:00,58.4,29.4,30.22,NNE,23,6.0,10.0,33,0.00,,,0.01,Wunderground v.1.15,2013-01-06 21:28:00,
2013-01-06 15:30:00,58.1,28.4,30.22,North,8,6.0,6.0,32,0.00,,,0.01,Wunderground v.1.15,2013-01-06 21:30:00,
2013-01-06 15:31:00,58.1,29.8,30.22,North,0,6.0,6.0,34,0.00,,,0.01,Wunderground v.1.15,2013-01-06 21:31:00,
2013-01-06 15:33:00,58.0,29.0,30.22,NE,44,7.0,13.0,33,0.00,,,0.01,Wunderground v.1.15,2013-01-06 21:33:00,
2013-01-06 15:37:00,58.1,29.8,30.22,North,3,7.0,13.0,34,0.00,,,0.01,Wunderground v.1.15,2013-01-06 21:37:00,
2013-01-06 15:38:00,58.3,30.0,30.22,North,0,7.0,13.0,34,0.00,,,0.01,Wunderground v.1.15,2013-01-06 21:38:00,
2013-01-06 15:39:00,58.3,30.0,30.22,North,0,6.0,13.0,34,0.00,,,0.01,Wunderground v.1.15,2013-01-06 21:39:00,
2013-01-06 15:41:00,58.3,30.0,30.22,North,359,6.0,6.0,34,0.00,,,0.01,Wunderground v.1.15,2013-01-06 21:41:00,
2013-01-06 15:44:00,58.3,30.0,30.22,North,0,5.0,6.0,34,0.00,,,0.01,Wunderground v.1.15,2013-01-06 21:44:00,
2013-01-06 15:45:00,58.3,30.0,30.22,NE,45,5.0,10.0,34,0.00,,,0.01,Wunderground v.1.15,2013-01-06 21:45:00,
2013-01-06 15:47:00,58.3,30.0,30.22,ENE,73,6.0,10.0,34,0.00,,,0.01,Wunderground v.1.15,2013-01-06 21:47:00,
2013-01-06 15:49:00,58.1,30.6,30.22,NNE,30,6.0,10.0,35,0.00,,,0.01,Wunderground v.1.15,2013-01-06 21:49:00,
2013-01-06 15:50:00,58.1,30.6,30.22,NE,40,6.0,6.0,35,0.00,,,0.01,Wunderground v.1.15,2013-01-06 21:50:00,
2013-01-06 15:51:00,58.1,29.1,30.22,NNE,23,6.0,8.0,33,0.00,,,0.01,Wunderground v.1.15,2013-01-06 21:51:00,
2013-01-06 15:55:00,58.1,29.1,30.22,NE,37,6.0,9.0,33,0.00,,,0.01,Wunderground v.1.15,2013-01-06 21:55:00,
2013-01-06 15:56:00,58.1,29.8,30.22,North,1,6.0,9.0,34,0.00,,,0.01,Wunderground v.1.15,2013-01-06 21:56:00,
2013-01-06 15:57:00,58.1,29.1,30.22,North,0,6.0,9.0,33,0.00,,,0.01,Wunderground v.1.15,2013-01-06 21:57:00,
2013-01-06 16:00:00,58.1,29.1,30.22,North,0,6.0,6.0,33,0.00,,,0.01,Wunderground v.1.15,2013-01-06 22:00:00,
2013-01-06 16:01:00,58.1,29.1,30.22,NE,47,7.0,12.0,33,0.00,,,0.01,Wunderground v.1.15,2013-01-06 22:01:00,
2013-01-06 16:02:00,58.1,28.4,30.22,NNE,24,7.0,12.0,32,0.00,,,0.01,Wunderground v.1.15,2013-01-06 22:02:00,
2013-01-06 16:05:00,58.0,29.0,30.22,NE,48,6.0,12.0,33,0.00,,,0.01,Wunderground v.1.15,2013-01-06 22:05:00,
2013-01-06 16:07:00,58.0,29.8,30.22,NE,51,6.0,12.0,34,0.00,,,0.01,Wunderground v.1.15,2013-01-06 22:07:00,
2013-01-06 16:08:00,58.1,29.8,30.22,NE,45,6.0,12.0,34,0.00,,,0.01,Wunderground v.1.15,2013-01-06 22:08:00,
2013-01-06 16:11:00,58.3,30.7,30.22,NE,45,5.0,8.0,35,0.00,,,0.01,Wunderground v.1.15,2013-01-06 22:11:00,
2013-01-06 16:13:00,58.1,29.8,30.22,NNE,18,5.0,8.0,34,0.00,,,0.01,Wunderground v.1.15,2013-01-06 22:13:00,
2013-01-06 16:14:00,58.1,29.8,30.22,NE,37,5.0,10.0,34,0.00,,,0.01,Wunderground v.1.15,2013-01-06 22:14:00,
2013-01-06 16:16:00,58.0,30.5,30.22,North,357,5.0,10.0,35,0.00,,,0.01,Wunderground v.1.15,2013-01-06 22:16:00,
2013-01-06 16:20:00,58.0,29.8,30.22,NNE,16,5.0,5.0,34,0.00,,,0.01,Wunderground v.1.15,2013-01-06 22:20:00,
2013-01-06 16:21:00,58.0,29.8,30.22,NE,41,5.0,5.0,34,0.00,,,0.01,Wunderground v.1.15,2013-01-06 22:21:00,
2013-01-06 16:23:00,57.8,29.6,30.22,NE,55,5.0,7.0,34,0.00,,,0.01,Wunderground v.1.15,2013-01-06 22:23:00,
2013-01-06 16:26:00,58.0,30.5,30.22,North,8,4.0,7.0,35,0.00,,,0.01,Wunderground v.1.15,2013-01-06 22:26:00,
2013-01-06 16:27:00,58.0,30.5,30.22,North,4,4.0,8.0,35,0.00,,,0.01,Wunderground v.1.15,2013-01-06 22:27:00,
2013-01-06 16:28:00,58.0,29.8,30.22,NNE,20,4.0,8.0,34,0.00,,,0.01,Wunderground v.1.15,2013-01-06 22:28:00,
2013-01-06 16:31:00,57.8,28.1,30.23,NNE,25,5.0,8.0,32,0.00,,,0.01,Wunderground v.1.15,2013-01-06 22:31:00,
2013-01-06 16:34:00,57.6,28.7,30.23,NNE,21,5.0,8.0,33,0.00,,,0.01,Wunderground v.1.15,2013-01-06 22:34:00,
2013-01-06 16:35:00,57.6,28.7,30.23,NE,45,6.0,8.0,33,0.00,,,0.01,Wunderground v.1.15,2013-01-06 22:35:00,
2013-01-06 16:41:00,57.3,29.9,30.23,NE,56,5.0,8.0,35,0.00,,,0.01,Wunderground v.1.15,2013-01-06 22:41:00,
2013-01-06 16:43:00,57.5,30.0,30.23,NNE,23,5.0,7.0,35,0.00,,,0.01,Wunderground v.1.15,2013-01-06 22:43:00,
2013-01-06 16:44:00,57.5,30.0,30.23,NNE,30,4.0,7.0,35,0.00,,,0.01,Wunderground v.1.15,2013-01-06 22:44:00,
2013-01-06 16:46:00,57.5,29.3,30.23,NE,42,4.0,7.0,34,0.00,,,0.01,Wunderground v.1.15,2013-01-06 22:46:00,
2013-01-06 16:49:00,57.3,29.9,30.23,North,6,4.0,7.0,35,0.00,,,0.01,Wunderground v.1.15,2013-01-06 22:49:00,
2013-01-06 16:51:00,57.3,29.9,30.23,North,359,5.0,7.0,35,0.00,,,0.01,Wunderground v.1.15,2013-01-06 22:51:00,
2013-01-06 16:52:00,57.3,29.9,30.23,NE,55,5.0,5.0,35,0.00,,,0.01,Wunderground v.1.15,2013-01-06 22:52:00,
2013-01-06 16:55:00,57.3,30.5,30.23,NNE,30,6.0,7.0,36,0.00,,,0.01,Wunderground v.1.15,2013-01-06 22:55:00,
2013-01-06 16:57:00,57.2,30.5,30.23,NNE,24,5.0,7.0,36,0.00,,,0.01,Wunderground v.1.15,2013-01-06 22:57:00,
2013-01-06 16:58:00,57.3,31.2,30.23,NNE,23,5.0,7.0,37,0.00,,,0.01,Wunderground v.1.15,2013-01-06 22:58:00,
2013-01-06 16:59:00,57.3,31.2,30.23,ENE,59,5.0,7.0,37,0.00,,,0.01,Wunderground v.1.15,2013-01-06 22:59:00,
2013-01-06 17:01:00,57.3,31.2,30.23,NNE,32,4.0,4.0,37,0.00,,,0.01,Wunderground v.1.15,2013-01-06 23:01:00,
2013-01-06 17:05:00,57.2,31.1,30.23,ENE,75,4.0,6.0,37,0.00,,,0.01,Wunderground v.1.15,2013-01-06 23:05:00,
2013-01-06 17:07:00,57.2,31.1,30.23,NNE,31,4.0,6.0,37,0.00,,,0.01,Wunderground v.1.15,2013-01-06 23:07:00,
2013-01-06 17:09:00,57.2,31.1,30.23,North,4,4.0,6.0,37,0.00,,,0.01,Wunderground v.1.15,2013-01-06 23:09:00,
2013-01-06 17:11:00,57.0,31.0,30.23,NNE,30,4.0,4.0,37,0.00,,,0.01,Wunderground v.1.15,2013-01-06 23:11:00,
2013-01-06 17:13:00,57.0,31.0,30.23,NNE,28,4.0,4.0,37,0.00,,,0.01,Wunderground v.1.15,2013-01-06 23:13:00,
2013-01-06 17:18:00,57.0,31.6,30.23,NNE,28,3.0,4.0,38,0.00,,,0.01,Wunderground v.1.15,2013-01-06 23:18:00,
2013-01-06 17:19:00,57.0,31.6,30.23,NNE,30,3.0,4.0,38,0.00,,,0.01,Wunderground v.1.15,2013-01-06 23:19:00,
2013-01-06 17:21:00,57.0,31.6,30.23,North,11,3.0,4.0,38,0.00,,,0.01,Wunderground v.1.15,2013-01-06 23:21:00,
2013-01-06 17:24:00,57.0,31.6,30.23,NE,34,3.0,4.0,38,0.00,,,0.01,Wunderground v.1.15,2013-01-06 23:24:00,
2013-01-06 17:27:00,56.9,31.5,30.23,NNE,25,3.0,5.0,38,0.00,,,0.01,Wunderground v.1.15,2013-01-06 23:27:00,
2013-01-06 17:29:00,56.7,31.4,30.23,NNE,25,3.0,5.0,38,0.00,,,0.01,Wunderground v.1.15,2013-01-06 23:29:00,
2013-01-06 17:31:00,56.7,32.0,30.23,NNE,25,3.0,3.0,39,0.00,,,0.01,Wunderground v.1.15,2013-01-06 23:31:00,
2013-01-06 17:32:00,56.6,31.9,30.23,NNE,25,2.0,3.0,39,0.00,,,0.01,Wunderground v.1.15,2013-01-06 23:32:00,
2013-01-06 17:34:00,56.6,31.9,30.23,NNE,25,2.0,3.0,39,0.00,,,0.01,Wunderground v.1.15,2013-01-06 23:34:00,
2013-01-06 17:36:00,56.5,31.8,30.23,NNE,25,2.0,3.0,39,0.00,,,0.01,Wunderground v.1.15,2013-01-06 23:36:00,
2013-01-06 17:41:00,56.0,32.0,30.23,NNE,25,2.0,2.0,40,0.00,,,0.01,Wunderground v.1.15,2013-01-06 23:41:00,
2013-01-06 17:42:00,55.9,31.9,30.23,NNE,25,2.0,2.0,40,0.00,,,0.01,Wunderground v.1.15,2013-01-06 23:42:00,
2013-01-06 17:44:00,55.7,31.7,30.23,NNE,25,1.0,2.0,40,0.00,,,0.01,Wunderground v.1.15,2013-01-06 23:44:00,
2013-01-06 17:46:00,55.6,32.2,30.24,NNE,25,1.0,2.0,41,0.00,,,0.01,Wunderground v.1.15,2013-01-06 23:46:00,
2013-01-06 17:47:00,55.6,32.2,30.24,NNE,25,1.0,2.0,41,0.00,,,0.01,Wunderground v.1.15,2013-01-06 23:47:00,
2013-01-06 17:48:00,55.4,32.1,30.24,NNE,25,1.0,2.0,41,0.00,,,0.01,Wunderground v.1.15,2013-01-06 23:48:00,
2013-01-06 17:54:00,55.1,32.4,30.24,NNE,25,0.0,1.0,42,0.00,,,0.01,Wunderground v.1.15,2013-01-06 23:54:00,
2013-01-06 17:55:00,55.1,32.4,30.24,NNE,25,0.0,1.0,42,0.00,,,0.01,Wunderground v.1.15,2013-01-06 23:55:00,
2013-01-06 17:56:00,55.0,32.3,30.24,NNE,25,0.0,1.0,42,0.00,,,0.01,Wunderground v.1.15,2013-01-06 23:56:00,
2013-01-06 17:57:00,55.0,32.3,30.24,NNE,25,0.0,1.0,42,0.00,,,0.01,Wunderground v.1.15,2013-01-06 23:57:00,
2013-01-06 18:00:00,54.7,32.0,30.24,NNE,25,0.0,0.0,42,0.00,,,0.01,Wunderground v.1.15,2013-01-07 00:00:00,
2013-01-06 18:02:00,54.5,32.4,30.24,NNE,25,0.0,0.0,43,0.00,,,0.01,Wunderground v.1.15,2013-01-07 00:02:00,
2013-01-06 18:04:00,54.4,32.3,30.24,NNE,25,0.0,0.0,43,0.00,,,0.01,Wunderground v.1.15,2013-01-07 00:04:00,
2013-01-06 18:06:00,54.2,32.2,30.24,NNE,25,0.0,0.0,43,0.00,,,0.01,Wunderground v.1.15,2013-01-07 00:06:00,
2013-01-06 18:07:00,54.1,32.6,30.24,NNE,25,0.0,0.0,44,0.00,,,0.01,Wunderground v.1.15,2013-01-07 00:07:00,
2013-01-06 18:08:00,54.1,32.1,30.24,NNE,25,0.0,0.0,43,0.00,,,0.01,Wunderground v.1.15,2013-01-07 00:08:00,
2013-01-06 18:13:00,53.6,32.2,30.24,NNE,25,0.0,0.0,44,0.00,,,0.01,Wunderground v.1.15,2013-01-07 00:13:00,
2013-01-06 18:14:00,53.5,32.1,30.24,NNE,25,0.0,0.0,44,0.00,,,0.01,Wunderground v.1.15,2013-01-07 00:14:00,
2013-01-06 18:16:00,53.3,31.9,30.25,NNE,25,0.0,0.0,44,0.00,,,0.01,Wunderground v.1.15,2013-01-07 00:16:00,
2013-01-06 18:19:00,53.1,31.7,30.25,NNE,25,0.0,0.0,44,0.00,,,0.01,Wunderground v.1.15,2013-01-07 00:19:00,
2013-01-06 18:21:00,52.9,31.6,30.25,NNE,25,0.0,0.0,44,0.00,,,0.01,Wunderground v.1.15,2013-01-07 00:21:00,
2013-01-06 18:22:00,52.9,32.1,30.25,NNE,25,0.0,0.0,45,0.00,,,0.01,Wunderground v.1.15,2013-01-07 00:22:00,
2013-01-06 18:24:00,52.8,32.0,30.25,NNE,25,0.0,1.0,45,0.00,,,0.01,Wunderground v.1.15,2013-01-07 00:24:00,
2013-01-06 18:27:00,52.5,31.8,30.25,NNE,25,0.0,1.0,45,0.00,,,0.01,Wunderground v.1.15,2013-01-07 00:27:00,
2013-01-06 18:30:00,52.2,31.5,30.25,NNE,25,0.0,1.0,45,0.00,,,0.01,Wunderground v.1.15,2013-01-07 00:30:00,
2013-01-06 18:32:00,52.0,31.3,30.25,NNE,25,0.0,0.0,45,0.00,,,0.01,Wunderground v.1.15,2013-01-07 00:32:00,
2013-01-06 18:33:00,52.0,31.3,30.25,NNE,25,0.0,0.0,45,0.00,,,0.01,Wunderground v.1.15,2013-01-07 00:33:00,
2013-01-06 18:36:00,51.7,31.6,30.25,NNE,25,0.0,0.0,46,0.00,,,0.01,Wunderground v.1.15,2013-01-07 00:36:00,
2013-01-06 18:37:00,51.7,31.6,30.25,NNE,25,0.0,0.0,46,0.00,,,0.01,Wunderground v.1.15,2013-01-07 00:37:00,
2013-01-06 18:38:00,51.7,31.6,30.25,NNE,25,0.0,0.0,46,0.00,,,0.01,Wunderground v.1.15,2013-01-07 00:38:00,
2013-01-06 18:39:00,51.6,31.5,30.25,NNE,25,0.0,0.0,46,0.00,,,0.01,Wunderground v.1.15,2013-01-07 00:39:00,
2013-01-06 18:45:00,51.1,31.6,30.25,NNE,25,0.0,1.0,47,0.00,,,0.01,Wunderground v.1.15,2013-01-07 00:45:00,
2013-01-06 18:46:00,51.1,31.6,30.26,NNE,25,0.0,2.0,47,0.00,,,0.01,Wunderground v.1.15,2013-01-07 00:46:00,
2013-01-06 18:47:00,51.0,32.0,30.26,NNE,25,0.0,2.0,48,0.00,,,0.01,Wunderground v.1.15,2013-01-07 00:47:00,
2013-01-06 18:50:00,50.8,31.8,30.26,NNE,25,1.0,2.0,48,0.00,,,0.01,Wunderground v.1.15,2013-01-07 00:50:00,
2013-01-06 18:53:00,50.7,31.7,30.26,NNE,25,1.0,2.0,48,0.00,,,0.01,Wunderground v.1.15,2013-01-07 00:53:00,
2013-01-06 18:56:00,50.5,31.5,30.26,NNE,25,1.0,2.0,48,0.00,,,0.01,Wunderground v.1.15,2013-01-07 00:56:00,
2013-01-06 18:57:00,50.4,31.4,30.26,NNE,25,1.0,2.0,48,0.00,,,0.01,Wunderground v.1.15,2013-01-07 00:57:00,
2013-01-06 18:58:00,50.4,31.4,30.26,NNE,25,1.0,2.0,48,0.00,,,0.01,Wunderground v.1.15,2013-01-07 00:58:00,
2013-01-06 18:59:00,50.4,31.4,30.26,NNE,25,1.0,2.0,48,0.00,,,0.01,Wunderground v.1.15,2013-01-07 00:59:00,
2013-01-06 19:01:00,50.2,31.8,30.26,NNE,25,1.0,2.0,49,0.00,,,0.01,Wunderground v.1.15,2013-01-07 01:01:00,
2013-01-06 19:03:00,50.1,31.7,30.26,NNE,25,1.0,2.0,49,0.00,,,0.01,Wunderground v.1.15,2013-01-07 01:03:00,
2013-01-06 19:04:00,50.1,31.7,30.26,NNE,25,1.0,2.0,49,0.00,,,0.01,Wunderground v.1.15,2013-01-07 01:04:00,
2013-01-06 19:07:00,49.9,31.5,30.26,NNE,25,1.0,2.0,49,0.00,,,0.01,Wunderground v.1.15,2013-01-07 01:07:00,
2013-01-06 19:09:00,49.8,31.9,30.26,NNE,25,1.0,2.0,50,0.00,,,0.01,Wunderground v.1.15,2013-01-07 01:09:00,
2013-01-06 19:10:00,49.8,31.9,30.26,NNE,25,1.0,2.0,50,0.00,,,0.01,Wunderground v.1.15,2013-01-07 01:10:00,
2013-01-06 19:11:00,49.8,31.9,30.26,NNE,25,1.0,2.0,50,0.00,,,0.01,Wunderground v.1.15,2013-01-07 01:11:00,
2013-01-06 19:12:00,49.6,31.7,30.26,NNE,25,2.0,2.0,50,0.00,,,0.01,Wunderground v.1.15,2013-01-07 01:12:00,
2013-01-06 19:16:00,49.5,31.6,30.26,NNE,25,2.0,2.0,50,0.00,,,0.01,Wunderground v.1.15,2013-01-07 01:16:00,
2013-01-06 19:19:00,49.5,31.6,30.26,NNE,25,1.0,2.0,50,0.00,,,0.01,Wunderground v.1.15,2013-01-07 01:19:00,
2013-01-06 19:20:00,49.4,31.5,30.26,NNE,25,1.0,2.0,50,0.00,,,0.01,Wunderground v.1.15,2013-01-07 01:20:00,
2013-01-06 19:24:00,49.4,32.0,30.26,NNE,25,1.0,2.0,51,0.00,,,0.01,Wunderground v.1.15,2013-01-07 01:24:00,
2013-01-06 19:25:00,49.2,31.8,30.26,NNE,25,1.0,2.0,51,0.00,,,0.01,Wunderground v.1.15,2013-01-07 01:25:00,
2013-01-06 19:26:00,49.2,31.8,30.26,NNE,25,1.0,2.0,51,0.00,,,0.01,Wunderground v.1.15,2013-01-07 01:26:00,
2013-01-06 19:30:00,48.9,32.0,30.27,NNE,25,1.0,1.0,52,0.00,,,0.01,Wunderground v.1.15,2013-01-07 01:30:00,
2013-01-06 19:31:00,48.9,32.0,30.27,NNE,25,1.0,1.0,52,0.00,,,0.01,Wunderground v.1.15,2013-01-07 01:31:00,
2013-01-06 19:36:00,48.6,32.2,30.27,NNE,25,0.0,1.0,53,0.00,,,0.01,Wunderground v.1.15,2013-01-07 01:36:00,
2013-01-06 19:38:00,48.5,32.1,30.27,NNE,25,0.0,1.0,53,0.00,,,0.01,Wunderground v.1.15,2013-01-07 01:38:00,
2013-01-06 19:39:00,48.5,32.1,30.27,NNE,25,0.0,1.0,53,0.00,,,0.01,Wunderground v.1.15,2013-01-07 01:39:00,
2013-01-06 19:41:00,48.2,31.9,30.27,NNE,25,0.0,1.0,53,0.00,,,0.01,Wunderground v.1.15,2013-01-07 01:41:00,
2013-01-06 19:43:00,48.2,31.9,30.27,NNE,25,1.0,1.0,53,0.00,,,0.01,Wunderground v.1.15,2013-01-07 01:43:00,
2013-01-06 19:44:00,48.2,32.3,30.27,NNE,25,1.0,1.0,54,0.00,,,0.01,Wunderground v.1.15,2013-01-07 01:44:00,
2013-01-06 19:47:00,48.0,32.1,30.28,NNE,25,1.0,2.0,54,0.00,,,0.01,Wunderground v.1.15,2013-01-07 01:47:00,
2013-01-06 19:49:00,48.0,32.1,30.28,NNE,25,1.0,2.0,54,0.00,,,0.01,Wunderground v.1.15,2013-01-07 01:49:00,
2013-01-06 19:50:00,48.0,31.7,30.28,NNE,25,1.0,1.0,53,0.00,,,0.01,Wunderground v.1.15,2013-01-07 01:50:00,
2013-01-06 19:54:00,47.9,31.6,30.28,NNE,25,1.0,2.0,53,0.00,,,0.01,Wunderground v.1.15,2013-01-07 01:54:00,
2013-01-06 19:56:00,47.9,32.0,30.28,NNE,25,1.0,2.0,54,0.00,,,0.01,Wunderground v.1.15,2013-01-07 01:56:00,
2013-01-06 19:57:00,47.9,32.0,30.28,NNE,25,1.0,2.0,54,0.00,,,0.01,Wunderground v.1.15,2013-01-07 01:57:00,
2013-01-06 20:00:00,47.7,31.9,30.28,NNE,25,1.0,1.0,54,0.00,,,0.01,Wunderground v.1.15,2013-01-07 02:00:00,
2013-01-06 20:01:00,47.7,31.9,30.28,NNE,25,1.0,1.0,54,0.00,,,0.01,Wunderground v.1.15,2013-01-07 02:01:00,
2013-01-06 20:05:00,47.6,31.8,30.28,NNE,25,1.0,1.0,54,0.00,,,0.01,Wunderground v.1.15,2013-01-07 02:05:00,
2013-01-06 20:07:00,47.6,31.8,30.28,NNE,25,0.0,1.0,54,0.00,,,0.01,Wunderground v.1.15,2013-01-07 02:07:00,
2013-01-06 20:08:00,47.6,31.8,30.28,NNE,25,0.0,1.0,54,0.00,,,0.01,Wunderground v.1.15,2013-01-07 02:08:00,
2013-01-06 20:09:00,47.4,32.0,30.28,NNE,25,0.0,1.0,55,0.00,,,0.01,Wunderground v.1.15,2013-01-07 02:09:00,
2013-01-06 20:12:00,47.3,31.9,30.28,NNE,25,0.0,0.0,55,0.00,,,0.01,Wunderground v.1.15,2013-01-07 02:12:00,
2013-01-06 20:15:00,47.1,31.7,30.28,NNE,25,0.0,1.0,55,0.00,,,0.01,Wunderground v.1.15,2013-01-07 02:15:00,
2013-01-06 20:16:00,47.1,31.7,30.28,NNE,25,0.0,2.0,55,0.00,,,0.01,Wunderground v.1.15,2013-01-07 02:16:00,
2013-01-06 20:17:00,47.0,31.7,30.28,NNE,25,0.0,2.0,55,0.00,,,0.01,Wunderground v.1.15,2013-01-07 02:17:00,
2013-01-06 20:20:00,47.0,31.7,30.28,NNE,25,1.0,1.0,55,0.00,,,0.01,Wunderground v.1.15,2013-01-07 02:20:00,
2013-01-06 20:21:00,46.8,31.5,30.28,NNE,25,1.0,1.0,55,0.00,,,0.01,Wunderground v.1.15,2013-01-07 02:21:00,
2013-01-06 20:23:00,46.8,31.5,30.28,NNE,25,1.0,1.0,55,0.00,,,0.01,Wunderground v.1.15,2013-01-07 02:23:00,
2013-01-06 20:25:00,46.7,31.8,30.28,NNE,25,0.0,1.0,56,0.00,,,0.01,Wunderground v.1.15,2013-01-07 02:25:00,
2013-01-06 20:28:00,46.7,31.8,30.28,NNE,25,0.0,1.0,56,0.00,,,0.01,Wunderground v.1.15,2013-01-07 02:28:00,
2013-01-06 20:30:00,46.5,31.6,30.28,NNE,25,0.0,1.0,56,0.00,,,0.01,Wunderground v.1.15,2013-01-07 02:30:00,
2013-01-06 20:34:00,46.4,31.5,30.29,NNE,25,0.0,0.0,56,0.00,,,0.01,Wunderground v.1.15,2013-01-07 02:34:00,
2013-01-06 20:35:00,46.4,31.5,30.29,NNE,25,0.0,0.0,56,0.00,,,0.01,Wunderground v.1.15,2013-01-07 02:35:00,
2013-01-06 20:38:00,46.2,31.8,30.29,NNE,25,0.0,2.0,57,0.00,,,0.01,Wunderground v.1.15,2013-01-07 02:38:00,
2013-01-06 20:39:00,46.2,31.8,30.29,NNE,25,0.0,2.0,57,0.00,,,0.01,Wunderground v.1.15,2013-01-07 02:39:00,
2013-01-06 20:40:00,46.2,31.8,30.29,NNE,25,1.0,2.0,57,0.00,,,0.01,Wunderground v.1.15,2013-01-07 02:40:00,
2013-01-06 20:43:00,46.1,31.7,30.29,NNE,25,1.0,2.0,57,0.00,,,0.01,Wunderground v.1.15,2013-01-07 02:43:00,
2013-01-06 20:44:00,46.1,31.7,30.29,NNE,25,1.0,2.0,57,0.00,,,0.01,Wunderground v.1.15,2013-01-07 02:44:00,
2013-01-06 20:45:00,46.1,31.7,30.29,NNE,25,1.0,2.0,57,0.00,,,0.01,Wunderground v.1.15,2013-01-07 02:45:00,
2013-01-06 20:48:00,46.1,31.7,30.29,NNE,21,1.0,2.0,57,0.00,,,0.01,Wunderground v.1.15,2013-01-07 02:48:00,
2013-01-06 20:50:00,46.2,31.8,30.29,NNE,21,1.0,3.0,57,0.00,,,0.01,Wunderground v.1.15,2013-01-07 02:50:00,
2013-01-06 20:51:00,46.2,31.4,30.29,NNE,21,1.0,1.0,56,0.00,,,0.01,Wunderground v.1.15,2013-01-07 02:51:00,
2013-01-06 20:53:00,46.2,31.4,30.29,NNE,21,2.0,2.0,56,0.00,,,0.01,Wunderground v.1.15,2013-01-07 02:53:00,
2013-01-06 20:55:00,46.2,31.4,30.29,NNE,21,2.0,2.0,56,0.00,,,0.01,Wunderground v.1.15,2013-01-07 02:55:00,
2013-01-06 20:56:00,46.2,31.4,30.29,NNE,21,2.0,2.0,56,0.00,,,0.01,Wunderground v.1.15,2013-01-07 02:56:00,
2013-01-06 20:58:00,46.2,31.4,30.29,NNE,21,2.0,2.0,56,0.00,,,0.01,Wunderground v.1.15,2013-01-07 02:58:00,
2013-01-06 21:00:00,46.2,31.8,30.29,NNE,21,2.0,3.0,57,0.00,,,0.01,Wunderground v.1.15,2013-01-07 03:00:00,
2013-01-06 21:02:00,46.2,31.8,30.28,NNE,21,2.0,3.0,57,0.00,,,0.01,Wunderground v.1.15,2013-01-07 03:02:00,
2013-01-06 21:03:00,46.1,31.7,30.28,NNE,21,2.0,3.0,57,0.00,,,0.01,Wunderground v.1.15,2013-01-07 03:03:00,
2013-01-06 21:04:00,46.1,31.7,30.28,NNE,21,2.0,3.0,57,0.00,,,0.01,Wunderground v.1.15,2013-01-07 03:04:00,
2013-01-06 21:05:00,46.1,31.7,30.28,NNE,21,2.0,3.0,57,0.00,,,0.01,Wunderground v.1.15,2013-01-07 03:05:00,
2013-01-06 21:10:00,46.0,31.6,30.28,NNE,21,2.0,3.0,57,0.00,,,0.01,Wunderground v.1.15,2013-01-07 03:10:00,
2013-01-06 21:14:00,45.8,31.4,30.28,NNE,21,2.0,3.0,57,0.00,,,0.01,Wunderground v.1.15,2013-01-07 03:14:00,
2013-01-06 21:15:00,45.8,31.4,30.28,NNE,20,2.0,3.0,57,0.00,,,0.01,Wunderground v.1.15,2013-01-07 03:15:00,
2013-01-06 21:17:00,45.8,31.4,30.28,NNE,20,2.0,3.0,57,0.00,,,0.01,Wunderground v.1.15,2013-01-07 03:17:00,
2013-01-06 21:20:00,45.8,31.4,30.28,NNE,20,2.0,2.0,57,0.00,,,0.01,Wunderground v.1.15,2013-01-07 03:20:00,
2013-01-06 21:21:00,45.8,31.4,30.28,NNE,16,2.0,2.0,57,0.00,,,0.01,Wunderground v.1.15,2013-01-07 03:21:00,
2013-01-06 21:22:00,45.8,31.4,30.28,NNE,16,2.0,2.0,57,0.00,,,0.01,Wunderground v.1.15,2013-01-07 03:22:00,
2013-01-06 21:23:00,45.8,31.9,30.28,NNE,16,2.0,2.0,58,0.00,,,0.01,Wunderground v.1.15,2013-01-07 03:23:00,
2013-01-06 21:26:00,45.8,31.9,30.28,NNE,16,2.0,2.0,58,0.00,,,0.01,Wunderground v.1.15,2013-01-07 03:26:00,
2013-01-06 21:28:00,45.7,31.8,30.28,NNE,16,2.0,2.0,58,0.00,,,0.01,Wunderground v.1.15,2013-01-07 03:28:00,
2013-01-06 21:32:00,45.7,31.8,30.28,North,4,2.0,5.0,58,0.00,,,0.01,Wunderground v.1.15,2013-01-07 03:32:00,
2013-01-06 21:33:00,45.7,31.8,30.28,North,6,2.0,5.0,58,0.00,,,0.01,Wunderground v.1.15,2013-01-07 03:33:00,
2013-01-06 21:34:00,45.5,31.6,30.28,North,6,2.0,5.0,58,0.00,,,0.01,Wunderground v.1.15,2013-01-07 03:34:00,
2013-01-06 21:37:00,45.5,31.6,30.28,North,6,2.0,5.0,58,0.00,,,0.01,Wunderground v.1.15,2013-01-07 03:37:00,
2013-01-06 21:40:00,45.4,31.9,30.28,North,6,2.0,2.0,59,0.00,,,0.01,Wunderground v.1.15,2013-01-07 03:40:00,
2013-01-06 21:41:00,45.2,31.7,30.28,North,6,2.0,3.0,59,0.00,,,0.01,Wunderground v.1.15,2013-01-07 03:41:00,
2013-01-06 21:42:00,45.2,31.7,30.28,North,6,2.0,3.0,59,0.00,,,0.01,Wunderground v.1.15,2013-01-07 03:42:00,
2013-01-06 21:45:00,45.1,31.6,30.28,North,10,2.0,3.0,59,0.00,,,0.01,Wunderground v.1.15,2013-01-07 03:45:00,
2013-01-06 21:48:00,45.1,32.0,30.28,North,8,2.0,3.0,60,0.00,,,0.01,Wunderground v.1.15,2013-01-07 03:48:00,
2013-01-06 21:50:00,44.9,31.8,30.28,NNE,14,2.0,2.0,60,0.00,,,0.01,Wunderground v.1.15,2013-01-07 03:50:00,
2013-01-06 21:51:00,44.9,31.8,30.28,NNE,14,2.0,2.0,60,0.00,,,0.01,Wunderground v.1.15,2013-01-07 03:51:00,
2013-01-06 21:52:00,44.9,31.8,30.28,NNE,14,2.0,2.0,60,0.00,,,0.01,Wunderground v.1.15,2013-01-07 03:52:00,
2013-01-06 21:55:00,44.9,31.8,30.28,NNE,16,2.0,5.0,60,0.00,,,0.01,Wunderground v.1.15,2013-01-07 03:55:00,
2013-01-06 21:56:00,44.9,31.8,30.28,North,6,2.0,5.0,60,0.00,,,0.01,Wunderground v.1.15,2013-01-07 03:56:00,
2013-01-06 21:57:00,44.9,31.8,30.28,North,6,2.0,5.0,60,0.00,,,0.01,Wunderground v.1.15,2013-01-07 03:57:00,
2013-01-06 22:01:00,44.8,32.2,30.28,North,4,3.0,3.0,61,0.00,,,0.01,Wunderground v.1.15,2013-01-07 04:01:00,
2013-01-06 22:02:00,44.8,32.2,30.28,North,6,3.0,3.0,61,0.00,,,0.01,Wunderground v.1.15,2013-01-07 04:02:00,
2013-01-06 22:03:00,44.8,32.2,30.28,North,6,3.0,3.0,61,0.00,,,0.01,Wunderground v.1.15,2013-01-07 04:03:00,
2013-01-06 22:04:00,44.8,32.2,30.28,North,7,3.0,3.0,61,0.00,,,0.01,Wunderground v.1.15,2013-01-07 04:04:00,
2013-01-06 22:10:00,44.6,32.0,30.28,North,10,2.0,2.0,61,0.00,,,0.01,Wunderground v.1.15,2013-01-07 04:10:00,
2013-01-06 22:13:00,44.6,32.0,30.28,North,10,1.0,2.0,61,0.00,,,0.01,Wunderground v.1.15,2013-01-07 04:13:00,
2013-01-06 22:14:00,44.5,31.9,30.28,North,10,1.0,2.0,61,0.00,,,0.01,Wunderground v.1.15,2013-01-07 04:14:00,
2013-01-06 22:15:00,44.5,31.9,30.27,North,10,1.0,2.0,61,0.00,,,0.01,Wunderground v.1.15,2013-01-07 04:15:00,
2013-01-06 22:18:00,44.5,32.3,30.27,North,10,1.0,2.0,62,0.00,,,0.01,Wunderground v.1.15,2013-01-07 04:18:00,
2013-01-06 22:20:00,44.3,32.1,30.27,North,10,1.0,1.0,62,0.00,,,0.01,Wunderground v.1.15,2013-01-07 04:20:00,
2013-01-06 22:22:00,44.3,32.1,30.27,North,10,1.0,1.0,62,0.00,,,0.01,Wunderground v.1.15,2013-01-07 04:22:00,
2013-01-06 22:24:00,44.2,32.0,30.27,North,10,1.0,2.0,62,0.00,,,0.01,Wunderground v.1.15,2013-01-07 04:24:00,
2013-01-06 22:27:00,44.2,32.0,30.27,North,10,1.0,2.0,62,0.00,,,0.01,Wunderground v.1.15,2013-01-07 04:27:00,
2013-01-06 22:30:00,44.2,32.0,30.27,North,10,1.0,1.0,62,0.00,,,0.01,Wunderground v.1.15,2013-01-07 04:30:00,
2013-01-06 22:31:00,44.2,32.0,30.27,North,10,1.0,2.0,62,0.00,,,0.01,Wunderground v.1.15,2013-01-07 04:31:00,
2013-01-06 22:32:00,44.2,32.0,30.27,North,10,1.0,2.0,62,0.00,,,0.01,Wunderground v.1.15,2013-01-07 04:32:00,
2013-01-06 22:34:00,44.2,32.4,30.27,North,10,1.0,2.0,63,0.00,,,0.01,Wunderground v.1.15,2013-01-07 04:34:00,
2013-01-06 22:36:00,44.2,32.4,30.27,North,10,1.0,2.0,63,0.00,,,0.01,Wunderground v.1.15,2013-01-07 04:36:00,
2013-01-06 22:40:00,44.2,32.4,30.27,North,10,1.0,1.0,63,0.00,,,0.01,Wunderground v.1.15,2013-01-07 04:40:00,
2013-01-06 22:41:00,44.2,32.4,30.27,North,10,1.0,1.0,63,0.00,,,0.01,Wunderground v.1.15,2013-01-07 04:41:00,
2013-01-06 22:42:00,44.2,32.4,30.27,North,10,1.0,1.0,63,0.00,,,0.01,Wunderground v.1.15,2013-01-07 04:42:00,
2013-01-06 22:45:00,44.2,32.4,30.26,North,10,1.0,1.0,63,0.00,,,0.01,Wunderground v.1.15,2013-01-07 04:45:00,
2013-01-06 22:47:00,44.1,32.3,30.26,North,10,1.0,1.0,63,0.00,,,0.01,Wunderground v.1.15,2013-01-07 04:47:00,
2013-01-06 22:50:00,44.1,32.3,30.26,North,10,0.0,0.0,63,0.00,,,0.01,Wunderground v.1.15,2013-01-07 04:50:00,
2013-01-06 22:51:00,43.9,32.1,30.26,North,10,0.0,0.0,63,0.00,,,0.01,Wunderground v.1.15,2013-01-07 04:51:00,
2013-01-06 22:53:00,43.9,32.1,30.26,North,10,0.0,0.0,63,0.00,,,0.01,Wunderground v.1.15,2013-01-07 04:53:00,
2013-01-06 22:56:00,43.6,32.2,30.26,North,10,0.0,0.0,64,0.00,,,0.01,Wunderground v.1.15,2013-01-07 04:56:00,
2013-01-06 23:01:00,43.3,31.9,30.26,North,10,0.0,0.0,64,0.00,,,0.01,Wunderground v.1.15,2013-01-07 05:01:00,
2013-01-06 23:03:00,43.2,32.2,30.26,North,10,0.0,0.0,65,0.00,,,0.01,Wunderground v.1.15,2013-01-07 05:03:00,
2013-01-06 23:06:00,43.1,32.1,30.26,North,10,0.0,2.0,65,0.00,,,0.01,Wunderground v.1.15,2013-01-07 05:06:00,
2013-01-06 23:08:00,43.1,32.1,30.26,North,10,0.0,2.0,65,0.00,,,0.01,Wunderground v.1.15,2013-01-07 05:08:00,
2013-01-06 23:10:00,43.1,32.1,30.26,North,10,0.0,2.0,65,0.00,,,0.01,Wunderground v.1.15,2013-01-07 05:10:00,
2013-01-06 23:12:00,43.1,32.1,30.26,North,10,0.0,1.0,65,0.00,,,0.01,Wunderground v.1.15,2013-01-07 05:12:00,
2013-01-06 23:15:00,43.1,32.1,30.26,North,10,1.0,1.0,65,0.00,,,0.01,Wunderground v.1.15,2013-01-07 05:15:00,
2013-01-06 23:16:00,43.1,32.1,30.26,North,10,1.0,1.0,65,0.00,,,0.01,Wunderground v.1.15,2013-01-07 05:16:00,
2013-01-06 23:18:00,43.1,32.1,30.26,North,10,1.0,1.0,65,0.00,,,0.01,Wunderground v.1.15,2013-01-07 05:18:00,
2013-01-06 23:21:00,42.9,31.9,30.26,North,10,1.0,1.0,65,0.00,,,0.01,Wunderground v.1.15,2013-01-07 05:21:00,
2013-01-06 23:23:00,42.9,31.9,30.26,North,10,1.0,2.0,65,0.00,,,0.01,Wunderground v.1.15,2013-01-07 05:23:00,
2013-01-06 23:26:00,42.8,31.8,30.26,North,10,1.0,2.0,65,0.00,,,0.01,Wunderground v.1.15,2013-01-07 05:26:00,
2013-01-06 23:27:00,42.8,31.8,30.26,North,10,1.0,2.0,65,0.00,,,0.01,Wunderground v.1.15,2013-01-07 05:27:00,
2013-01-06 23:28:00,42.8,31.8,30.26,North,10,1.0,2.0,65,0.00,,,0.01,Wunderground v.1.15,2013-01-07 05:28:00,
2013-01-06 23:30:00,42.6,31.7,30.26,North,10,1.0,2.0,65,0.00,,,0.01,Wunderground v.1.15,2013-01-07 05:30:00,
2013-01-06 23:33:00,42.6,31.7,30.26,North,10,2.0,2.0,65,0.00,,,0.01,Wunderground v.1.15,2013-01-07 05:33:00,
2013-01-06 23:34:00,42.5,31.6,30.26,North,10,2.0,2.0,65,0.00,,,0.01,Wunderground v.1.15,2013-01-07 05:34:00,
2013-01-06 23:35:00,42.5,31.6,30.26,North,10,1.0,2.0,65,0.00,,,0.01,Wunderground v.1.15,2013-01-07 05:35:00,
2013-01-06 23:38:00,42.3,31.4,30.26,North,10,1.0,2.0,65,0.00,,,0.01,Wunderground v.1.15,2013-01-07 05:38:00,
2013-01-06 23:40:00,42.3,31.4,30.26,North,10,1.0,2.0,65,0.00,,,0.01,Wunderground v.1.15,2013-01-07 05:40:00,
2013-01-06 23:41:00,42.2,31.6,30.26,North,10,1.0,2.0,66,0.00,,,0.01,Wunderground v.1.15,2013-01-07 05:41:00,
2013-01-06 23:46:00,42.1,31.6,30.26,North,8,2.0,2.0,66,0.00,,,0.01,Wunderground v.1.15,2013-01-07 05:46:00,
2013-01-06 23:48:00,42.1,31.6,30.26,North,10,2.0,2.0,66,0.00,,,0.01,Wunderground v.1.15,2013-01-07 05:48:00,
2013-01-06 23:50:00,42.1,31.2,30.26,North,3,2.0,4.0,65,0.00,,,0.01,Wunderground v.1.15,2013-01-07 05:50:00,
2013-01-06 23:52:00,42.1,31.2,30.26,North,3,2.0,4.0,65,0.00,,,0.01,Wunderground v.1.15,2013-01-07 05:52:00,
2013-01-06 23:54:00,42.2,31.3,30.26,North,1,2.0,4.0,65,0.00,,,0.01,Wunderground v.1.15,2013-01-07 05:54:00,
2013-01-06 23:56:00,42.2,31.3,30.26,North,0,2.0,4.0,65,0.00,,,0.01,Wunderground v.1.15,2013-01-07 05:56:00,
2013-01-06 23:57:00,42.2,31.3,30.26,North,0,2.0,5.0,65,0.00,,,0.01,Wunderground v.1.15,2013-01-07 05:57:00,